GFSNE_850_thetae_057.txt.gz
Theta_e
318 320 317 319 320 321 320 319 314 313 313 314 313 311 310 308 305 305 305 303 303 301 301 300 300 298 298 297 297 296 296 296 296 295 296 296 297 296
317 319 319 320 321 321 320 319 317 314 313 312 311 308 307 307 305 305 303 302 300 299 299 298 298 297 296 296 297 296 296 295 295 295 295 295 296 296
321 321 321 321 321 321 320 318 316 315 313 311 309 308 307 306 305 303 303 300 299 298 296 294 293 292 292 291 292 293 295 296 296 296 296 296 296 296
322 322 322 321 321 321 320 318 316 314 311 311 308 306 306 303 303 303 300 298 295 293 291 290 289 288 288 287 287 287 287 287 289 292 293 294 294 295
320 320 319 321 321 320 320 317 316 311 310 308 307 305 303 302 302 300 295 292 291 289 289 289 289 288 288 287 287 286 286 285 285 285 285 290 292 292
320 320 318 321 321 319 318 316 313 309 308 307 304 303 302 299 297 295 291 289 288 289 289 289 288 288 288 287 287 286 285 284 284 284 284 286 289 290
321 318 321 321 320 318 317 313 310 307 306 305 302 301 298 297 294 291 288 287 288 288 288 288 288 287 287 286 286 285 284 284 284 284 284 290 289 289
321 321 321 319 318 316 312 308 307 306 304 302 300 298 297 294 291 287 285 285 285 286 286 287 286 287 285 285 284 283 284 285 284 284 285 288 287 289
322 321 319 317 314 312 307 306 304 302 300 299 298 296 293 290 286 285 284 284 284 285 284 284 285 284 284 284 283 283 285 286 286 286 287 286 287 288
320 318 316 314 310 307 306 304 301 300 298 297 295 292 289 285 285 284 284 283 283 284 283 283 283 284 284 283 283 284 285 286 287 288 288 288 288 288
315 313 311 309 307 305 302 300 299 297 296 294 291 286 284 284 284 283 282 282 282 282 282 282 283 283 283 283 284 285 285 286 287 287 288 287 288 288
310 307 305 304 303 300 298 296 295 294 291 287 284 283 283 282 282 282 282 281 280 281 282 280 281 281 283 283 285 285 285 286 286 287 287 287 287 285
307 304 301 299 298 296 295 294 291 288 284 283 282 282 282 281 282 282 281 280 280 280 280 279 280 280 280 281 284 285 286 285 286 286 286 286 286 284
303 300 298 296 295 294 292 290 285 283 282 282 282 283 284 284 281 280 280 281 280 279 279 279 280 280 280 281 282 284 285 285 286 285 285 284 284 283
298 297 295 294 293 290 286 283 282 282 283 284 284 282 280 279 280 282 281 279 278 278 278 278 280 282 282 282 282 283 285 285 285 285 284 284 282 282
295 293 292 290 285 283 281 282 283 282 282 282 279 278 279 280 281 280 278 277 277 277 278 278 279 281 282 283 283 284 285 285 285 284 284 282 282 282
292 290 288 284 281 283 284 284 281 280 281 278 278 279 280 279 278 276 276 276 276 276 277 277 278 280 282 284 284 285 285 285 285 284 283 283 282 282
287 284 281 281 284 283 281 279 280 279 278 278 278 278 277 277 275 274 274 274 274 275 275 276 277 280 282 284 285 285 285 285 285 284 283 283 283 283
286 284 283 282 281 279 278 278 277 277 277 276 276 275 275 274 273 273 273 273 272 273 274 275 276 277 279 282 285 285 284 285 284 284 284 283 283 283
281 281 280 279 278 277 276 276 275 275 274 274 274 273 272 272 271 271 270 271 271 272 273 274 275 276 276 277 279 284 285 285 284 284 284 282 282 283
279 278 277 276 275 275 274 274 273 273 272 272 271 270 270 270 269 269 269 270 271 271 272 273 274 276 277 278 279 282 284 284 283 283 283 283 284 283
276 275 274 274 273 273 272 272 271 270 269 268 268 267 268 268 267 267 268 268 269 269 270 271 273 274 275 276 278 283 284 283 283 283 282 282 284 284
273 273 272 272 271 271 270 269 268 268 268 267 267 266 266 266 267 266 267 267 268 269 269 270 272 273 275 276 279 281 284 284 283 283 282 281 282 283

GFSNE_850_thetae_060.txt.gz
Theta_e
319 318 319 316 318 320 318 318 319 315 316 314 312 316 315 314 312 310 307 306 306 306 305 303 302 301 301 300 300 299 298 298 298 297 297 296 296 298
320 320 320 315 317 318 320 318 317 316 315 316 314 314 315 313 311 310 308 307 306 305 303 302 300 299 298 296 295 293 292 292 292 293 294 295 296 296
320 320 318 315 315 319 320 320 320 319 314 315 314 314 313 313 310 309 307 306 303 303 302 300 298 294 292 291 290 290 289 289 288 288 288 288 289 292
321 320 316 316 319 321 321 321 320 321 318 315 315 313 311 310 308 307 305 304 304 300 300 293 292 290 289 290 289 289 288 288 288 288 287 287 286 285
317 317 315 319 321 319 318 318 318 320 318 315 312 312 309 308 306 305 304 302 300 298 293 291 289 289 289 289 289 289 288 288 287 287 287 286 285 284
314 317 317 319 318 319 318 317 320 319 317 313 312 308 308 306 304 303 299 297 294 291 290 289 289 289 289 289 290 289 288 287 287 286 285 284 285 284
317 317 316 319 317 320 318 316 317 317 315 311 308 307 306 304 303 300 295 293 291 289 288 289 288 289 289 289 290 289 287 285 285 284 285 285 284 284
317 319 323 322 321 320 318 317 316 314 314 309 307 306 304 301 298 293 291 290 289 289 288 288 287 288 288 288 288 287 286 284 284 285 285 285 286 285
321 321 322 322 322 320 316 315 312 309 307 307 306 303 300 297 295 290 288 288 288 288 287 287 287 288 288 287 286 285 284 283 285 285 286 287 288 288
322 322 321 321 321 320 316 312 308 305 304 303 301 299 297 295 292 286 285 285 285 285 285 286 286 287 287 286 285 285 284 285 285 286 287 287 287 288
319 318 318 316 313 311 307 304 301 301 300 299 297 296 293 290 285 284 284 284 285 286 285 284 286 286 285 285 286 286 286 286 286 286 287 287 287 287
317 315 312 308 308 304 303 302 300 299 297 295 294 290 286 284 283 283 282 283 283 284 285 284 285 283 284 285 285 284 287 287 287 286 286 287 287 287
312 308 303 301 301 300 298 297 296 294 293 290 286 283 283 282 282 284 286 285 281 282 283 282 282 281 282 283 283 284 285 287 287 286 287 286 286 286
304 300 299 298 298 296 295 294 293 289 284 282 282 282 283 286 286 284 282 280 280 282 283 282 279 279 280 281 282 283 285 286 286 286 287 286 285 285
300 299 297 296 295 294 293 292 286 284 284 283 284 285 285 285 283 281 280 282 283 283 281 279 278 278 279 280 281 282 283 285 286 287 286 286 286 285
296 294 293 292 292 290 290 286 283 283 284 284 284 283 282 280 279 280 282 282 280 279 278 277 277 277 278 280 280 281 283 285 287 287 286 286 285 285
292 291 290 289 288 285 283 284 284 284 283 281 281 280 279 279 278 278 278 277 276 276 277 277 277 277 278 279 280 281 282 284 286 287 286 286 285 284
289 288 286 285 283 283 282 281 281 280 279 279 278 277 275 275 275 275 275 274 275 276 276 276 277 278 279 280 281 282 284 285 287 286 286 286 285 285
286 285 283 282 281 280 278 278 277 276 277 276 275 274 273 273 273 273 274 274 275 275 276 276 276 277 278 280 281 282 284 286 286 286 286 285 285 285
282 280 279 279 278 277 276 275 274 274 273 272 272 272 271 272 272 272 273 274 274 274 274 274 276 277 278 278 277 280 282 284 285 286 286 285 285 284
278 277 277 276 275 274 274 273 272 272 271 271 271 271 271 271 271 271 272 271 271 272 274 274 275 275 275 276 277 278 281 283 284 286 285 285 285 285
275 275 274 273 272 272 271 271 271 271 271 270 270 269 269 269 269 270 270 271 271 272 272 273 273 274 275 276 277 278 280 282 284 285 285 285 285 285
272 272 271 270 270 270 269 269 269 268 268 268 268 268 268 268 268 269 269 270 270 270 271 272 273 273 274 275 276 278 279 281 284 283 283 283 282 282

GFSNE_850_thetae_063.txt.gz
Theta_e
316 317 317 317 318 319 320 320 320 320 319 317 317 317 316 314 313 315 314 314 312 311 309 308 306 306 305 304 302 301 300 300 299 297 295 294 293 292
317 317 316 317 318 320 320 320 319 317 319 318 317 316 317 314 313 313 314 313 311 311 308 308 307 306 304 302 300 299 296 293 291 291 290 290 290 289
318 319 319 319 319 320 321 321 319 317 317 316 317 317 316 313 313 313 312 311 310 310 309 308 306 304 302 300 296 292 291 290 290 290 289 289 289 289
319 319 319 320 321 320 321 321 319 319 317 316 317 317 316 314 313 313 311 309 308 307 306 306 305 302 297 293 291 290 290 290 290 290 290 289 289 288
320 320 320 320 320 320 319 318 316 314 319 317 315 315 314 311 311 311 310 306 307 305 305 303 302 297 292 290 290 290 290 290 290 290 289 289 288 287
321 321 320 321 321 319 318 317 316 317 317 318 316 316 315 312 310 309 306 307 306 302 298 295 293 292 290 289 290 290 290 290 291 289 288 288 287 285
321 321 321 320 319 317 316 317 318 318 318 317 316 313 312 311 311 310 306 304 300 298 295 293 291 290 290 290 290 290 291 292 290 287 286 286 285 285
320 320 319 318 316 317 317 319 320 319 318 318 316 315 313 309 308 305 302 301 297 296 291 291 291 290 289 289 289 290 290 290 287 286 286 285 285 285
320 320 320 319 318 318 320 321 319 316 313 312 311 308 307 305 303 301 298 296 294 291 290 290 289 289 289 289 289 289 289 287 285 285 285 285 285 286
319 319 320 319 319 321 320 319 318 313 310 308 306 303 302 302 300 298 295 290 290 289 288 287 288 289 288 288 288 288 288 286 285 285 286 286 286 286
320 320 320 320 319 318 317 314 311 306 301 300 300 301 300 299 296 294 290 287 286 287 287 287 287 287 287 287 288 287 286 286 286 287 287 286 286 287
320 320 318 316 314 312 309 306 305 300 299 298 297 296 295 293 288 286 285 284 285 286 287 286 286 286 286 286 286 286 286 285 285 286 286 286 286 287
316 313 309 308 305 303 301 300 299 297 297 296 295 292 288 285 284 285 286 284 284 285 285 284 283 284 284 284 284 284 283 283 286 286 288 287 286 286
307 303 301 299 298 297 296 296 296 293 292 291 288 285 286 286 284 284 285 286 285 283 283 282 282 283 282 282 281 282 282 283 283 285 286 286 287 286
300 297 295 294 295 295 294 293 293 292 289 287 285 284 283 284 284 285 285 283 281 281 281 282 282 281 280 280 280 281 281 282 282 283 285 287 287 287
295 293 293 293 293 292 292 291 289 287 285 284 284 284 284 284 283 281 280 280 279 280 280 279 279 278 278 279 279 280 281 281 282 283 285 287 287 287
293 292 292 291 290 288 288 287 286 285 284 283 282 281 280 280 279 279 278 277 277 278 278 278 278 278 278 278 279 279 280 281 282 283 285 286 288 286
290 289 288 286 285 283 282 281 281 280 280 279 279 278 277 277 277 276 276 276 276 277 278 278 278 278 279 279 279 280 281 282 284 285 285 287 287 286
286 285 284 283 282 281 280 279 278 278 277 277 276 275 275 275 275 275 275 275 276 276 277 277 277 278 278 278 279 280 281 281 281 283 285 288 287 286
283 281 281 280 279 278 277 276 276 275 275 274 274 273 273 273 273 274 274 275 275 275 275 275 275 276 277 278 277 277 279 278 279 281 284 286 286 286
278 278 277 277 276 276 275 274 274 273 273 272 273 272 272 272 272 272 272 272 272 273 274 275 275 275 275 275 275 276 278 279 279 280 282 283 287 285
276 276 275 274 274 273 273 272 272 272 272 271 271 271 270 270 270 270 271 271 271 272 272 273 273 274 274 275 276 276 277 278 278 279 281 283 285 286
273 273 273 272 271 271 270 270 270 269 269 269 269 269 268 268 269 269 269 270 270 270 271 271 272 273 273 274 274 275 276 277 278 280 284 285 285 285

GFSNE_850_thetae_066.txt.gz
Theta_e
319 318 317 316 316 316 317 318 318 320 319 318 318 318 317 318 317 316 317 316 315 316 314 312 311 310 310 308 306 306 306 304 302 301 300 298 295 292
318 316 315 316 316 316 317 316 317 318 320 320 319 319 318 317 317 317 316 317 316 315 314 312 311 310 309 308 308 306 304 302 300 298 294 292 291 291
317 317 317 318 317 316 317 317 316 318 319 320 319 319 318 317 317 317 317 317 315 314 313 312 310 308 307 308 306 305 302 300 295 292 290 290 290 290
317 317 318 317 318 317 317 318 318 319 319 319 319 320 318 315 316 317 317 316 316 312 312 310 307 306 308 306 305 303 300 293 291 290 290 290 290 290
318 319 319 319 319 319 320 320 320 320 320 319 319 319 317 315 316 317 316 316 314 312 306 306 306 305 305 304 303 299 293 290 289 289 289 289 290 290
316 318 319 320 320 321 321 321 321 321 321 320 320 318 316 316 316 316 315 315 313 310 307 305 303 301 300 300 298 293 290 289 289 289 290 291 290 289
319 319 320 320 321 321 321 321 322 322 322 320 318 317 316 315 315 316 314 312 307 306 303 301 298 298 296 293 291 290 289 289 290 290 291 290 288 287
322 322 322 322 322 321 322 322 322 321 320 318 317 315 316 315 313 312 310 305 303 302 300 299 300 296 292 291 290 289 290 290 290 290 289 288 286 286
323 323 323 322 322 322 321 320 320 320 320 319 318 317 314 311 310 307 305 303 301 300 299 298 293 291 291 290 289 289 290 290 289 289 289 286 285 285
322 321 321 321 321 321 320 320 320 320 319 316 313 312 310 307 305 303 302 300 298 297 295 293 291 291 289 288 289 289 289 289 288 288 286 285 285 285
321 320 319 319 320 320 321 320 318 314 311 310 306 305 303 301 299 298 298 297 294 292 290 288 287 287 289 289 289 288 288 288 288 287 286 285 285 286
321 321 320 320 320 319 317 313 310 306 302 299 299 298 296 295 295 294 291 290 288 287 286 286 287 287 287 288 288 287 287 286 286 286 284 285 287 287
321 319 316 314 312 308 305 303 301 298 295 295 294 294 294 293 292 289 285 285 285 286 286 286 286 287 286 285 285 285 285 285 284 284 284 285 287 287
310 307 304 302 301 299 297 295 294 294 293 293 293 292 291 290 290 289 288 287 287 286 285 285 285 284 283 283 283 284 284 283 282 282 282 282 284 286
301 299 297 294 294 294 294 293 293 293 291 290 289 288 287 286 286 285 285 285 285 284 284 283 282 281 281 282 281 281 281 281 280 281 284 285 285 285
293 292 292 292 292 292 291 291 290 289 288 287 286 285 284 284 283 282 282 282 282 281 281 280 280 280 279 279 279 279 279 279 280 279 280 281 282 284
292 291 291 290 289 288 287 286 286 285 285 284 283 282 282 281 280 279 279 278 278 278 278 278 278 278 278 278 278 278 279 279 280 281 281 283 283 285
290 288 286 285 284 283 283 282 282 282 281 281 280 279 278 278 277 277 276 276 276 276 276 277 277 278 278 278 279 279 279 280 281 282 283 282 283 284
288 284 283 283 282 281 280 279 278 278 277 277 276 276 275 275 275 274 274 274 275 275 275 276 276 276 276 276 276 277 279 279 280 280 280 279 279 283
282 281 280 280 279 278 278 277 276 276 275 275 274 274 273 273 273 273 273 273 273 273 273 273 273 274 275 275 274 275 275 276 276 278 279 279 280 283
279 278 277 277 276 276 275 274 274 273 273 273 272 272 272 271 271 271 270 271 271 271 272 272 272 273 273 273 273 274 274 275 276 277 278 279 280 281
275 275 274 274 274 273 273 272 272 272 271 271 270 270 270 269 269 269 269 269 270 270 270 270 270 271 271 272 273 273 273 274 274 275 277 278 279 280
273 273 272 272 271 271 270 270 269 269 269 269 268 268 268 268 268 268 268 269 269 269 269 269 270 270 270 271 271 272 272 273 274 275 277 278 281 283

GFSNE_850_thetae_069.txt.gz
Theta_e
317 316 317 320 318 317 318 317 316 317 318 317 318 318 318 317 318 318 317 316 317 317 316 316 315 315 315 312 311 310 308 307 307 305 305 304 302 301
317 317 317 317 318 318 318 317 317 317 317 317 317 317 316 316 317 319 319 317 316 316 316 317 315 315 314 313 311 310 308 307 306 306 304 303 300 298
318 318 317 316 318 319 317 316 316 317 317 317 317 317 317 316 317 318 318 318 316 315 316 317 316 313 313 311 310 308 305 304 306 304 303 301 297 293
318 318 318 318 317 317 317 317 317 317 318 318 317 317 317 318 319 319 318 319 318 315 316 316 316 313 312 312 310 305 304 304 302 301 300 296 291 289
318 317 317 318 318 317 317 317 317 318 318 318 318 319 319 319 319 319 319 319 318 316 316 317 316 313 312 311 308 304 303 302 300 296 293 290 289 289
318 318 317 317 318 319 318 318 318 319 319 319 320 320 320 320 320 319 318 317 317 316 315 316 315 311 308 305 305 304 302 301 300 292 289 288 288 289
320 319 318 319 319 319 319 319 319 319 320 320 321 321 320 320 319 319 318 316 314 312 310 310 308 306 304 301 300 300 300 298 289 289 289 289 290 290
320 320 320 319 319 319 318 318 318 319 320 321 321 321 320 319 320 319 317 315 310 309 306 304 304 303 303 301 300 300 296 290 290 289 290 290 290 289
322 321 321 321 321 321 321 321 321 321 321 321 321 321 319 318 316 316 315 312 309 306 304 301 301 301 300 298 297 294 291 289 289 291 291 291 289 288
322 322 321 321 321 322 322 323 322 322 322 322 321 321 320 315 313 311 308 306 303 302 300 299 299 297 296 294 291 289 289 289 290 290 289 288 288 287
323 322 322 322 322 322 322 321 320 321 321 320 317 313 310 309 308 305 303 301 298 296 294 294 293 293 294 292 288 288 289 289 288 289 288 288 287 286
323 323 322 322 321 320 320 320 320 316 308 306 304 302 302 302 299 299 297 296 296 293 293 293 291 289 288 289 289 287 287 288 288 287 286 286 286 285
322 321 320 319 318 317 312 307 306 300 297 298 297 296 295 294 294 295 294 295 295 293 291 290 289 289 288 287 287 287 286 286 286 285 286 286 285 283
316 310 306 302 303 302 300 299 296 293 293 293 293 293 293 292 292 291 290 289 289 288 288 287 286 286 285 285 285 285 285 284 284 284 284 284 282 282
298 294 294 294 295 294 291 291 291 292 293 292 291 290 288 288 288 288 287 286 286 285 285 284 283 283 282 282 281 281 281 281 281 282 282 282 283 283
292 291 291 291 291 291 291 290 289 289 288 287 286 285 285 285 284 283 283 282 282 282 281 281 281 280 280 279 279 278 279 278 279 280 280 280 281 281
289 290 289 288 288 287 286 286 285 284 285 283 283 282 282 281 280 280 279 279 278 278 278 278 278 278 278 278 278 278 278 278 279 279 279 280 281 282
290 289 287 286 285 284 283 282 282 282 281 280 279 279 278 278 277 277 276 276 275 275 275 276 276 276 276 277 277 277 277 277 277 278 279 279 280 280
288 284 283 282 281 280 280 279 278 277 277 277 276 276 275 275 274 274 273 273 273 273 273 274 274 274 273 274 274 275 275 275 275 275 276 276 277 278
282 281 280 279 278 278 277 276 276 275 275 274 274 273 273 273 272 272 272 271 271 271 271 271 272 272 272 272 272 272 272 273 274 274 275 276 277 278
278 278 278 277 276 276 275 274 274 273 273 273 272 272 271 271 270 270 270 270 269 270 270 270 270 270 270 270 271 271 272 272 273 273 273 274 275 276
275 275 274 274 273 273 272 272 272 271 271 271 270 270 270 270 269 269 269 269 269 269 269 269 269 269 270 270 270 270 270 271 271 272 273 274 275 276
272 272 272 271 271 271 271 271 271 271 270 270 270 269 269 269 268 268 267 268 268 268 268 268 268 268 268 268 269 269 270 271 271 272 274 275 276 277

GFSNE_850_thetae_072.txt.gz
Theta_e
315 316 318 317 316 317 320 319 318 319 318 318 317 316 316 317 317 317 318 318 316 317 318 316 316 316 316 316 316 314 314 314 313 312 310 309 307 304
318 319 319 318 317 317 317 317 317 317 318 318 317 317 316 316 316 316 317 317 317 316 318 318 318 316 316 316 316 316 315 314 313 313 312 309 305 303
317 318 318 316 316 317 318 318 318 317 317 317 318 316 316 316 316 316 317 317 317 317 318 318 318 318 316 316 316 316 314 313 313 313 309 305 302 303
318 317 317 317 317 318 317 317 316 317 318 318 318 316 316 316 316 317 317 317 318 319 319 319 318 318 318 317 316 316 314 313 312 310 307 305 303 302
318 317 316 317 317 318 318 318 318 317 317 317 317 317 317 317 317 318 318 318 319 318 319 319 318 317 317 316 315 314 313 310 309 307 305 303 302 301
317 317 317 317 316 317 318 318 317 317 317 318 318 318 318 318 318 317 319 318 318 320 319 319 318 316 315 314 311 310 308 308 307 303 302 300 300 300
318 318 318 318 318 317 318 319 318 317 317 318 318 318 319 319 318 319 320 320 320 319 319 319 318 316 314 310 308 307 306 303 301 301 300 299 298 290
319 320 319 319 319 318 319 319 319 319 319 319 319 319 319 319 319 319 319 319 319 317 317 314 312 311 309 306 306 304 301 300 300 299 299 292 290 290
319 319 320 320 321 320 320 320 320 320 319 319 319 319 319 320 320 320 319 320 319 316 312 310 307 305 303 302 301 299 299 298 298 296 291 290 290 291
321 321 320 320 320 320 320 321 321 320 320 320 320 320 319 318 319 319 318 315 314 309 307 303 302 301 300 299 297 296 295 296 292 289 289 290 290 289
323 323 322 322 322 322 321 321 321 321 321 321 320 320 321 319 317 313 310 308 306 301 300 299 297 296 295 294 294 293 292 289 288 288 288 288 288 289
324 323 323 322 321 321 321 321 321 320 317 313 311 310 305 303 302 301 302 301 300 294 294 295 294 294 293 293 292 290 288 288 288 288 288 287 287 287
321 319 317 317 321 320 316 315 311 306 300 299 298 296 296 296 296 295 295 295 295 295 293 293 291 290 289 288 286 286 287 287 287 287 286 286 286 286
313 304 299 299 300 303 304 303 297 294 294 294 294 293 293 292 292 291 291 291 290 290 289 288 287 286 286 285 285 286 286 286 285 285 285 284 284 283
294 294 297 296 292 292 292 292 292 293 293 292 290 289 287 288 288 288 288 287 287 287 286 285 285 284 283 282 281 281 281 281 281 281 280 280 280 280
293 293 293 293 294 292 290 290 290 289 289 289 289 288 288 287 287 286 286 285 284 284 283 282 281 281 280 279 279 279 278 278 278 279 279 279 279 280
291 291 291 290 289 289 289 288 288 287 287 285 284 283 283 282 282 281 281 280 280 279 279 279 278 278 277 277 277 277 277 277 277 277 277 278 278 279
290 288 287 286 284 284 284 283 283 282 281 281 281 280 279 278 278 277 277 276 276 275 275 275 275 275 275 275 275 275 275 275 275 275 275 275 276 277
287 284 283 282 281 281 280 280 280 279 278 278 277 276 275 275 274 274 273 273 273 272 272 272 272 272 272 272 272 273 272 272 272 273 273 273 274 275
282 281 279 279 278 278 277 277 276 275 274 274 273 273 272 272 272 271 271 271 271 271 271 271 270 270 270 270 270 270 271 271 271 271 272 272 272 273
278 278 277 276 276 275 274 274 273 273 273 272 272 271 271 271 271 270 270 269 269 270 269 269 269 269 269 269 270 270 270 270 270 270 271 271 272 272
275 275 274 273 273 272 272 272 272 271 271 271 270 270 270 270 270 269 269 269 269 269 268 268 268 268 268 268 268 268 269 269 270 271 271 272 272 273
272 272 272 271 271 271 271 270 270 270 270 270 270 269 269 269 269 269 269 268 268 268 267 267 267 267 267 268 268 268 269 269 270 270 271 271 272 273

GFSNE_850_thetae_075.txt.gz
Theta_e
318 318 317 316 316 315 315 315 315 316 318 318 317 318 317 317 318 317 316 316 316 316 316 318 318 316 316 318 317 317 316 316 317 316 315 315 315 315
317 317 317 316 316 315 315 317 317 317 318 318 318 317 317 317 317 317 317 316 316 316 316 316 317 317 317 318 318 318 317 316 316 316 315 315 315 314
317 318 318 317 316 316 316 317 317 317 317 317 316 317 317 317 317 317 317 316 316 316 316 316 317 317 317 318 318 317 318 318 317 316 316 315 315 315
316 315 315 315 315 316 317 318 317 317 316 317 317 317 317 317 317 317 317 317 316 317 317 317 317 318 318 319 319 319 317 316 317 315 315 315 314 314
316 316 316 317 316 316 317 317 317 317 317 318 317 318 318 317 317 317 317 317 318 318 317 316 318 317 318 319 319 319 318 316 316 315 313 312 313 313
317 316 317 317 318 318 319 318 317 317 317 317 318 317 317 317 317 316 315 317 317 318 318 318 319 319 319 319 319 319 318 316 314 311 310 310 310 308
317 317 316 316 317 318 317 317 317 317 317 317 317 317 317 317 317 316 317 318 317 317 318 318 318 318 318 319 318 318 316 314 310 308 307 307 306 304
319 320 319 319 318 318 318 318 318 318 317 317 317 317 317 317 318 318 318 317 317 317 317 318 317 317 317 317 316 315 312 309 307 305 304 302 300 299
319 319 319 319 319 320 320 319 319 319 319 319 318 318 318 319 318 318 318 318 318 318 317 318 316 316 315 313 311 308 304 304 301 299 299 299 298 297
320 320 321 319 319 320 319 319 319 319 319 319 319 319 319 319 318 318 319 318 317 316 315 311 309 306 304 303 301 300 299 298 297 297 296 296 294 290
322 320 320 320 320 320 320 321 321 320 319 319 319 319 317 317 317 315 312 311 309 307 304 303 299 298 295 295 294 294 294 293 292 292 289 288 288 288
320 321 319 319 320 320 320 320 318 317 316 311 310 307 298 301 301 302 302 301 300 297 295 295 294 294 293 292 291 291 291 290 289 288 288 288 288 287
312 308 305 312 317 314 315 313 311 308 299 296 296 296 297 297 297 296 296 296 295 294 291 292 291 290 291 289 289 289 288 287 287 287 287 286 286 286
304 299 299 298 297 300 300 297 296 294 293 293 293 292 291 291 291 291 291 291 291 291 290 290 289 289 288 287 286 286 286 285 285 286 285 284 284 283
295 294 293 293 294 293 292 292 292 292 292 292 291 290 290 290 290 288 288 288 287 287 287 287 286 285 284 283 282 282 282 282 282 281 280 280 280 280
291 291 291 292 291 289 290 290 289 288 288 287 286 284 284 284 285 285 284 285 284 284 283 282 281 280 280 280 279 278 279 278 278 279 278 278 278 279
290 290 289 289 288 287 287 286 286 285 286 284 284 284 283 283 283 281 281 281 281 280 279 278 278 278 277 277 276 276 276 276 276 276 276 276 276 276
289 289 287 286 285 284 284 284 283 283 282 282 282 281 280 278 277 276 276 276 275 275 274 274 274 274 274 274 274 274 274 273 273 273 273 273 273 274
288 285 283 283 282 281 281 281 281 279 278 277 276 275 275 274 274 274 274 273 273 273 272 272 272 272 271 271 272 271 271 271 271 271 271 271 271 272
282 281 280 279 278 277 277 276 275 274 274 274 273 273 272 272 272 272 272 271 271 271 271 271 271 270 270 269 269 271 270 270 270 270 270 270 271 271
278 277 276 276 275 274 273 273 273 272 272 272 272 272 272 271 271 271 270 270 270 270 270 270 269 269 269 269 270 270 271 271 270 270 270 270 270 271
274 274 273 272 272 272 271 271 271 271 271 271 270 270 270 270 270 270 269 269 269 269 269 269 269 269 269 268 268 269 269 270 270 270 270 270 270 270
272 271 271 271 271 271 270 270 270 270 270 270 270 269 269 269 269 269 269 269 269 269 268 268 268 268 268 268 268 268 269 269 269 270 271 271 271 271

GFSNE_850_thetae_078.txt.gz
Theta_e
320 319 320 319 318 318 317 318 318 316 315 315 315 315 315 316 316 317 317 317 317 317 317 316 316 315 316 316 317 318 317 317 318 318 316 316 316 316
319 318 319 318 318 317 318 317 316 316 315 315 315 317 317 317 317 317 316 317 317 317 317 317 317 316 316 316 316 316 318 318 317 318 318 318 317 317
320 320 319 319 319 317 317 317 315 315 315 316 316 316 316 317 316 317 317 317 317 317 317 317 317 317 317 316 316 316 317 317 317 318 318 318 317 317
321 318 318 317 317 316 316 317 317 317 317 317 315 316 316 317 316 316 316 317 317 317 317 317 317 316 317 317 317 317 317 318 318 318 319 319 318 316
319 318 318 317 316 317 318 318 317 315 314 315 315 317 318 317 317 317 316 317 317 317 317 317 317 315 317 318 317 317 318 318 318 319 319 319 318 316
319 318 318 318 317 317 317 317 316 317 317 317 318 318 318 318 317 317 317 317 316 317 317 318 318 317 317 318 318 318 319 319 319 319 318 318 317 316
319 319 318 318 317 317 317 317 318 318 318 318 318 317 317 317 317 317 316 317 317 317 318 318 317 317 317 317 318 317 317 317 317 318 316 316 314 313
318 319 319 319 319 319 319 318 318 318 318 317 317 317 317 317 317 317 317 317 317 317 317 317 316 316 317 317 318 317 317 316 315 316 315 312 308 307
319 319 318 318 318 318 318 318 319 319 319 319 318 318 318 317 317 317 317 317 317 317 317 317 317 317 316 316 315 314 313 309 307 304 302 302 300 301
321 320 318 318 318 318 318 319 319 320 319 319 319 317 316 316 316 316 317 317 317 317 316 314 312 309 308 306 302 301 299 298 298 298 296 295 295 295
318 317 318 318 318 318 318 318 316 316 316 318 318 315 313 314 315 313 312 311 309 306 304 301 300 299 297 296 295 293 293 292 292 293 294 293 292 291
314 312 311 311 312 316 314 315 313 310 308 304 301 301 301 300 300 300 301 299 299 297 295 295 294 293 292 291 291 291 291 291 290 290 290 290 289 289
308 305 304 303 304 305 306 305 304 299 299 299 298 297 296 296 295 295 294 294 294 292 291 291 291 291 291 289 289 288 288 288 288 287 287 287 287 287
300 298 296 296 297 298 299 295 294 293 294 293 293 291 291 290 290 289 289 290 289 288 288 288 288 288 288 286 286 286 286 286 286 286 286 286 286 286
294 292 292 292 292 292 291 291 291 291 290 290 288 287 287 286 286 287 287 287 287 288 287 287 287 286 285 284 283 283 283 283 283 283 282 281 280 280
291 291 291 291 290 289 289 289 289 288 288 287 286 285 285 286 286 286 286 286 285 286 285 284 283 282 282 281 280 279 279 279 279 278 278 278 278 278
289 289 289 289 288 287 287 286 285 285 285 284 284 284 283 282 280 279 278 278 277 277 277 277 276 276 276 275 275 275 275 275 275 274 274 274 275 275
288 288 287 285 285 284 284 283 282 281 279 278 277 276 276 276 276 275 275 275 275 274 274 274 275 275 274 273 274 273 273 272 273 273 272 272 273 273
286 284 283 282 281 280 278 277 276 276 275 275 275 275 274 274 274 273 273 273 273 272 272 272 272 272 272 272 272 271 271 271 271 271 271 272 272 272
281 280 279 278 276 275 275 274 273 273 273 273 273 273 272 272 272 272 272 271 271 271 271 271 271 270 270 269 269 271 270 269 269 270 270 271 271 271
276 275 274 274 273 273 273 272 272 272 272 271 271 271 271 271 271 270 270 270 270 270 270 270 269 269 269 269 270 271 272 271 270 270 270 270 270 271
273 273 272 272 272 271 271 271 271 270 271 270 270 270 270 270 270 270 270 270 269 269 269 269 269 269 269 268 268 269 270 271 271 271 271 271 270 269
271 271 271 270 270 270 270 270 270 270 270 270 270 269 269 269 269 269 269 269 269 269 269 269 268 268 268 268 268 269 269 270 270 272 273 273 272 272

GFSNE_850_thetae_081.txt.gz
Theta_e
314 317 318 317 318 316 319 319 318 317 317 315 315 315 315 315 314 314 315 316 316 317 317 317 317 317 317 317 317 317 316 316 316 317 317 317 317 317
312 313 319 318 314 318 318 318 318 318 317 317 317 317 315 315 314 315 316 316 317 316 317 316 316 317 317 317 317 317 317 316 316 316 316 317 318 318
314 314 316 319 319 318 319 318 318 317 318 317 317 316 315 315 315 316 316 315 316 316 317 317 317 317 317 317 317 317 317 317 317 317 317 317 317 317
316 316 317 318 319 319 319 319 318 318 317 317 316 316 316 316 316 316 316 316 316 317 317 317 316 316 317 317 317 317 317 316 315 317 317 317 317 317
321 320 320 321 321 319 318 317 318 317 316 316 316 317 317 317 316 315 315 315 316 317 318 317 317 318 317 316 317 318 317 316 317 318 317 317 317 318
320 320 320 320 320 319 318 318 318 318 317 317 317 317 317 317 317 317 317 317 318 318 318 318 318 318 318 318 318 318 317 317 317 317 317 318 318 318
319 319 319 319 319 319 319 318 318 318 318 317 317 317 317 317 317 317 317 317 317 317 318 317 318 318 318 318 318 317 316 317 317 317 318 317 317 318
318 318 318 318 318 318 318 318 318 319 318 318 318 318 318 317 318 318 318 317 317 317 317 317 317 317 317 317 317 317 317 316 316 317 317 317 317 316
319 319 319 318 318 318 318 318 318 318 318 318 318 318 317 317 317 317 317 317 317 317 317 317 316 316 316 315 315 316 316 316 316 316 315 313 311 308
319 317 317 317 317 317 318 318 317 317 317 317 317 316 316 315 314 313 314 314 312 309 308 309 307 305 303 302 301 301 302 302 302 302 301 301 300 300
317 316 315 315 315 315 316 314 312 310 308 308 308 309 306 307 308 309 307 307 308 307 306 303 301 300 299 297 296 294 293 293 293 293 294 295 296 295
309 308 307 307 306 307 308 308 308 305 304 302 300 300 299 300 299 299 300 300 298 297 295 294 292 292 291 290 290 290 290 290 290 290 290 290 290 290
302 301 299 299 300 300 300 300 299 296 295 295 295 294 295 295 294 293 293 293 293 291 290 290 290 289 290 288 288 288 288 288 288 288 288 288 288 288
297 295 294 293 294 294 294 293 293 293 293 293 292 292 291 290 290 290 290 290 289 289 288 289 289 288 288 287 286 286 286 286 287 286 286 287 287 286
293 292 291 291 292 292 291 291 291 291 291 291 290 289 288 287 287 287 287 287 287 287 287 287 287 286 285 285 284 284 283 283 284 284 283 282 282 282
290 290 290 290 290 289 289 289 289 288 288 287 286 285 285 285 285 285 283 281 280 279 278 278 278 278 279 279 279 278 278 278 278 277 276 276 276 276
288 288 288 288 287 287 286 285 285 284 284 282 280 279 278 277 277 277 277 276 276 276 276 276 275 275 275 275 276 275 274 274 274 274 274 274 275 275
286 287 286 285 284 282 281 279 278 277 277 276 276 276 276 276 275 275 275 275 274 274 274 274 274 274 274 273 274 273 273 273 273 273 273 273 274 274
285 284 282 280 278 277 276 275 275 275 274 274 274 274 274 274 274 273 273 273 272 272 272 272 272 272 273 273 272 272 272 272 271 272 272 272 273 273
280 278 277 275 275 274 274 273 273 273 273 273 273 273 273 272 272 272 272 272 271 271 271 270 270 270 270 271 270 271 271 270 270 271 271 272 272 272
275 275 274 274 273 273 273 272 272 272 272 272 271 271 271 271 271 271 270 270 270 269 270 269 269 270 269 269 270 271 271 270 270 270 271 271 272 272
273 273 272 272 272 271 271 271 271 271 271 270 270 270 270 270 270 270 270 269 269 268 268 268 268 268 269 269 269 270 270 271 272 272 272 271 270 271
271 271 271 270 270 270 270 270 270 270 270 270 269 269 269 269 269 269 269 269 268 268 268 268 268 268 268 268 268 269 269 270 270 272 274 273 273 272

GFSNE_850_thetae_084.txt.gz
Theta_e
320 319 316 318 320 320 316 316 315 316 317 318 318 317 316 317 313 315 315 314 315 314 314 315 315 316 316 317 317 317 317 317 317 317 317 317 316 316
311 316 318 319 318 319 319 318 318 315 317 317 317 318 317 316 315 314 315 315 314 314 316 316 317 316 316 317 317 316 316 317 317 317 317 317 317 317
312 313 312 316 317 318 318 318 316 315 315 318 317 317 317 317 316 317 316 315 315 315 316 316 316 316 316 316 317 317 317 317 317 317 317 317 317 317
310 310 311 313 315 313 315 316 317 317 318 318 318 318 318 318 317 317 317 316 316 316 316 315 316 316 316 316 317 317 317 317 317 317 317 317 317 317
315 316 314 311 312 314 314 315 317 318 319 319 318 318 318 317 317 316 317 317 317 316 316 316 317 317 318 318 318 318 318 317 318 317 316 317 317 317
321 321 321 320 320 319 319 319 319 320 319 318 318 318 318 318 318 318 318 318 318 318 318 318 318 318 318 319 319 319 318 318 317 318 318 318 317 317
321 321 321 320 320 320 320 319 319 319 319 319 319 319 318 319 319 318 319 318 319 318 318 318 318 318 319 318 318 317 318 318 318 318 317 317 316 317
319 319 319 319 319 319 318 318 318 319 319 319 320 319 318 318 318 318 318 318 318 318 317 317 317 318 318 318 318 318 318 317 317 317 317 317 317 317
319 319 319 319 318 318 318 318 318 318 318 318 318 318 317 317 317 317 316 316 316 315 314 313 315 313 311 310 310 310 311 310 311 310 309 308 308 310
317 317 317 317 317 317 317 317 317 316 316 316 315 314 314 312 312 312 310 310 310 308 307 308 307 306 305 304 304 304 304 304 304 304 303 302 300 299
313 313 313 312 312 311 312 312 312 311 310 309 307 307 303 303 302 303 303 302 301 301 300 299 298 297 296 295 295 294 293 293 293 292 292 292 293 294
306 305 304 304 304 304 305 305 303 301 298 298 298 298 298 298 297 298 298 297 297 295 295 294 293 292 291 291 291 291 290 290 290 290 290 290 290 290
301 300 299 298 298 299 299 298 298 295 295 295 295 294 294 294 293 292 292 292 292 292 291 291 290 290 289 288 288 288 288 288 288 288 289 289 289 289
296 294 294 293 294 295 295 294 293 293 292 292 292 292 291 291 290 290 289 289 289 289 289 288 288 288 286 286 286 285 285 287 286 286 286 287 287 287
293 292 292 292 292 292 292 291 291 291 291 290 289 288 287 287 286 286 285 285 284 284 284 285 285 285 283 283 284 283 282 282 281 281 281 280 279 279
289 289 289 289 290 289 289 289 289 288 288 286 284 283 281 280 279 279 279 279 280 279 277 278 278 278 279 280 279 280 279 278 278 277 277 277 277 277
288 288 288 287 287 286 285 284 283 281 280 279 278 278 277 277 277 277 277 278 278 278 277 276 276 276 276 276 278 277 277 276 276 276 275 276 277 277
286 286 285 283 281 279 278 277 277 277 277 276 276 276 276 276 276 276 276 277 277 276 276 275 275 276 277 277 276 275 275 275 275 275 275 276 277 277
283 280 279 277 276 275 275 275 275 275 275 275 275 274 274 274 274 275 274 275 275 275 275 274 274 274 276 277 276 274 273 273 273 275 275 275 275 276
278 276 275 275 274 273 273 273 273 273 273 273 273 273 273 273 273 273 273 272 273 273 274 274 273 272 272 273 273 273 273 272 272 273 273 274 274 274
274 274 273 272 272 272 272 272 272 272 272 272 271 272 271 271 271 271 271 271 272 272 273 272 272 271 271 272 273 274 273 272 272 271 272 272 273 274
272 272 272 272 272 271 271 271 270 270 270 270 270 270 270 269 269 269 270 270 271 271 271 271 271 271 271 272 272 272 273 273 272 272 272 272 272 273
271 270 270 270 270 270 269 269 270 269 270 270 269 269 269 268 268 268 268 269 269 269 270 270 271 271 271 271 271 272 272 272 273 273 273 273 273 272

GFSNE_850_thetae_087.txt.gz
Theta_e
322 320 321 321 321 321 320 321 318 319 318 318 318 320 319 317 318 319 318 315 313 314 315 314 315 314 315 315 315 316 316 316 317 317 317 317 317 317
320 321 320 320 318 317 316 319 320 317 316 316 317 318 319 317 318 318 319 318 315 314 314 315 314 314 315 316 316 316 316 316 316 316 317 316 316 317
318 314 313 313 315 316 319 319 319 319 319 318 317 316 316 315 316 316 316 317 315 317 316 316 316 316 316 316 316 316 316 316 316 316 317 317 317 317
317 313 313 311 315 318 319 318 318 318 318 318 318 317 316 316 317 318 318 318 318 317 317 316 317 316 316 316 316 316 316 316 316 316 317 317 317 317
314 315 312 311 312 315 313 313 314 315 313 313 313 313 315 318 319 318 318 318 317 317 316 316 317 317 317 317 318 318 318 318 318 318 317 317 318 317
316 315 315 313 311 311 314 315 313 313 315 316 317 317 318 319 319 320 320 319 319 319 319 319 320 320 319 319 319 319 318 318 318 318 318 318 318 317
321 320 320 320 320 321 321 321 320 320 320 319 319 319 320 319 320 320 321 321 321 321 320 319 320 320 320 320 319 319 319 319 319 318 318 318 318 318
321 320 320 321 321 321 321 321 321 320 320 320 321 320 319 320 320 320 319 318 317 318 318 317 316 315 314 315 314 314 316 314 315 312 312 311 312 312
320 320 320 319 319 320 320 319 319 319 319 319 318 317 316 315 315 315 313 313 312 312 312 313 310 310 310 309 310 309 309 310 308 306 306 306 305 305
318 318 318 318 319 318 318 317 316 315 314 313 312 309 308 308 307 307 307 307 306 306 305 304 303 303 302 301 300 299 299 298 296 296 296 296 296 296
314 313 313 313 313 313 313 311 310 309 307 305 304 302 300 300 300 300 300 300 299 299 299 298 297 297 296 295 295 294 293 292 292 292 292 292 292 292
306 305 305 306 305 304 305 304 303 301 299 298 298 297 297 296 295 295 295 295 295 293 294 293 292 291 291 291 291 291 290 290 290 290 290 290 290 290
301 300 298 297 298 299 299 297 297 296 295 294 294 294 293 293 293 292 292 292 292 291 290 290 289 289 288 288 288 288 288 288 287 286 286 288 288 288
296 295 294 294 294 295 295 294 293 292 292 292 291 291 291 291 290 290 289 288 288 288 288 288 287 287 286 286 287 286 284 284 284 283 283 284 284 283
293 293 292 292 292 292 292 291 291 291 290 289 288 288 287 285 284 282 282 281 282 281 280 280 279 280 282 283 284 283 283 282 281 280 280 279 279 279
290 290 290 290 290 290 290 289 289 288 286 285 283 281 280 280 280 279 280 281 281 281 280 279 278 278 279 279 280 281 280 280 279 279 278 278 278 278
287 287 287 286 285 285 285 283 282 280 280 279 279 279 279 278 279 278 278 279 280 279 279 278 277 278 278 278 278 278 278 278 278 277 277 277 277 278
284 283 281 281 280 279 278 278 278 278 277 277 277 277 277 277 277 277 277 278 278 278 278 277 276 277 278 279 278 277 276 276 276 275 276 277 277 277
281 279 279 278 277 277 276 276 276 276 275 275 275 275 275 276 276 276 276 275 275 276 276 276 276 275 275 276 276 276 275 275 275 275 275 275 275 275
277 277 276 276 275 275 274 274 274 273 273 273 273 273 273 274 274 274 274 273 273 274 275 275 275 274 272 273 273 274 275 274 274 274 274 273 274 274
275 274 274 274 274 273 272 272 272 271 271 271 271 271 271 272 272 272 273 272 272 274 274 274 273 272 273 273 274 274 274 274 274 274 273 273 273 274
274 273 272 272 272 271 271 271 271 271 270 270 270 270 269 270 271 271 271 271 272 272 272 272 272 273 273 273 273 273 273 273 273 274 274 274 274 274
271 271 271 270 270 270 270 270 269 269 269 268 268 268 268 269 269 270 270 270 271 271 271 270 271 272 273 273 273 273 273 273 273 273 273 273 273 273

GFSNE_850_thetae_090.txt.gz
Theta_e
322 322 321 320 322 323 322 322 321 319 321 320 319 320 321 322 320 318 316 319 318 319 318 316 315 314 314 314 315 315 315 316 316 316 316 316 316 316
324 322 321 322 321 320 319 319 320 320 319 319 319 318 317 317 318 318 317 316 316 316 315 315 315 314 314 315 315 314 315 315 315 315 316 316 316 316
323 323 320 317 319 320 319 317 316 314 318 316 318 318 317 318 317 317 316 316 317 317 317 317 315 315 315 315 315 315 316 317 316 316 316 316 316 316
322 320 315 315 317 318 315 317 315 316 317 319 318 318 318 318 318 317 317 315 316 317 318 318 317 317 318 316 316 317 316 316 316 316 316 317 317 317
320 319 318 318 316 315 313 313 314 318 318 316 314 314 314 314 315 317 317 318 319 319 319 319 318 318 317 317 317 318 318 318 318 319 319 319 318 318
319 318 317 316 315 314 312 311 312 312 312 314 316 318 320 320 319 319 319 319 320 320 320 320 320 320 320 320 320 320 320 320 319 319 319 319 319 319
318 315 313 313 314 316 317 316 314 316 318 318 320 319 320 319 319 320 320 320 321 321 321 320 320 320 320 319 319 317 315 313 314 312 312 311 309 310
317 318 318 318 318 319 320 320 320 319 319 319 319 319 319 319 318 318 316 316 315 317 317 315 316 314 313 313 313 312 311 310 310 309 307 306 306 305
320 320 320 320 319 319 319 319 319 320 320 320 318 317 315 315 314 314 313 312 310 310 310 311 309 308 309 306 304 303 301 300 300 299 298 297 296 295
318 318 318 318 318 318 317 317 316 315 314 313 312 310 309 308 307 308 306 305 303 303 303 301 301 301 300 299 298 297 296 295 294 293 292 292 292 292
315 315 315 314 312 311 311 310 309 307 305 304 304 302 300 300 299 299 298 298 297 297 296 296 295 296 295 295 294 293 292 292 291 291 291 291 291 290
307 307 306 306 306 305 305 304 302 301 299 299 298 296 295 295 294 294 294 294 294 293 293 292 292 291 289 289 288 288 288 288 288 288 289 289 289 289
302 301 299 298 299 299 299 297 297 296 296 295 294 293 293 292 292 292 292 291 291 290 290 290 289 289 288 287 287 288 286 285 285 283 283 282 282 281
297 295 294 294 294 295 295 294 294 293 292 292 292 292 291 290 289 287 286 285 284 284 282 281 281 281 281 282 283 284 283 283 282 281 281 280 280 279
293 292 291 291 291 292 291 290 290 290 289 289 288 286 284 283 282 281 281 281 282 282 281 281 280 279 279 280 281 281 281 280 280 280 279 278 278 278
290 290 291 290 290 289 289 288 287 286 285 283 282 280 280 280 280 280 280 280 281 281 280 279 279 278 278 278 278 278 279 278 278 278 278 277 277 277
287 287 287 286 285 285 284 282 281 280 280 280 279 279 279 279 279 278 279 279 279 279 278 278 277 277 277 278 278 278 278 277 277 276 276 275 275 276
284 283 282 281 280 279 279 279 279 278 278 278 278 278 278 278 277 277 277 277 277 277 277 276 276 276 277 277 277 276 276 275 275 275 274 274 274 274
281 280 279 278 277 277 277 277 277 277 276 276 276 276 276 276 275 275 275 275 275 275 275 275 275 274 274 273 274 274 274 275 275 274 274 274 274 274
278 278 277 276 276 276 276 275 275 275 275 274 274 274 274 274 274 273 273 273 273 274 274 274 274 273 273 273 273 273 274 274 273 274 274 274 274 274
276 275 275 275 274 274 274 273 273 273 273 272 272 273 273 272 272 272 272 272 272 272 272 272 272 272 273 273 273 273 273 273 273 273 274 274 273 273
274 274 273 273 273 272 272 272 272 271 272 271 270 271 271 270 270 270 270 270 271 271 271 271 271 271 272 272 272 272 272 272 272 273 273 272 272 273
273 273 272 272 272 271 271 270 270 270 269 269 269 269 269 269 269 269 269 269 270 269 270 269 269 270 270 271 271 271 271 271 272 271 271 271 272 272

GFSNE_850_thetae_093.txt.gz
Theta_e
325 323 323 321 321 323 322 322 322 322 322 321 321 320 320 320 321 321 320 318 317 317 318 319 319 318 317 316 316 314 314 314 315 315 315 315 315 315
325 322 323 319 322 319 322 321 321 321 321 320 320 320 320 320 319 318 318 318 317 317 317 316 316 316 314 315 316 315 315 315 315 315 315 316 316 316
324 323 321 321 321 319 321 321 321 320 318 319 319 319 317 316 316 317 318 318 318 316 316 316 316 316 317 317 317 316 316 317 316 316 315 316 316 316
324 323 322 322 320 322 321 320 317 316 316 315 314 316 316 316 319 318 318 318 317 316 315 316 318 319 318 318 318 318 317 317 317 317 316 316 316 316
322 322 323 319 321 320 317 316 316 316 315 317 315 318 318 315 313 314 315 317 318 319 319 319 319 320 320 319 319 318 318 317 317 317 318 318 319 319
321 322 321 320 319 319 315 316 317 315 315 313 313 314 313 317 318 318 318 318 318 319 318 320 320 320 319 319 318 319 319 319 318 318 318 315 314 312
319 318 319 319 318 317 316 314 314 314 313 312 312 316 319 318 318 318 319 319 319 318 318 318 317 316 313 315 315 313 313 313 312 311 310 310 307 308
318 318 317 316 315 315 315 316 317 317 317 317 317 317 318 319 318 317 317 316 314 315 314 314 314 313 310 309 309 308 307 306 304 303 301 300 299 297
319 318 317 317 317 317 317 317 317 317 317 317 316 317 316 315 315 314 312 311 312 310 309 308 307 304 304 302 301 300 298 298 296 296 295 294 294 293
317 317 317 317 316 316 317 317 316 315 314 314 313 311 311 310 309 309 307 306 304 303 302 301 301 300 299 298 296 294 293 293 291 291 291 291 291 291
315 314 313 312 311 310 310 310 309 308 307 306 305 304 304 302 301 300 299 299 299 298 296 296 296 295 295 294 292 292 290 290 289 288 288 288 289 289
308 307 306 306 305 304 304 303 303 301 300 301 299 297 297 296 295 295 295 294 294 294 292 291 292 292 291 290 288 288 287 286 285 283 282 282 282 282
302 300 299 300 300 299 299 299 299 297 296 295 294 293 292 292 293 292 292 291 290 289 287 285 284 283 283 284 283 285 284 283 282 281 281 280 281 281
296 294 294 294 294 294 295 294 293 293 292 292 291 291 290 289 288 287 286 284 283 283 283 282 281 281 280 280 281 282 282 281 281 280 280 280 279 279
293 291 291 291 291 292 291 290 290 290 289 289 288 287 285 284 282 282 282 282 282 281 281 281 280 279 278 278 278 278 278 279 278 279 279 278 277 277
290 290 289 289 289 288 287 287 286 285 284 283 282 282 281 281 281 280 280 280 281 280 279 278 278 278 277 278 278 278 278 278 278 277 276 276 276 276
288 287 288 288 287 285 284 282 281 281 281 280 280 280 280 279 279 279 279 278 279 278 278 277 276 277 276 276 277 277 277 275 275 275 275 274 275 275
284 284 283 282 282 281 281 280 279 279 279 279 278 278 278 278 278 277 278 278 277 276 276 276 275 276 276 276 274 274 274 274 274 274 273 274 274 274
281 280 280 279 279 279 279 278 278 277 278 278 277 277 276 276 277 276 276 275 275 275 275 274 274 274 274 273 274 274 273 273 273 273 273 273 273 274
279 278 278 278 277 277 277 277 277 276 276 276 276 276 275 274 274 274 273 273 273 273 273 273 273 273 272 272 272 273 273 273 273 272 272 273 273 273
277 276 276 276 276 276 276 276 276 275 275 274 274 274 273 272 272 272 271 271 271 271 271 271 272 271 271 272 272 272 272 271 271 272 272 272 271 272
276 276 275 274 274 274 273 273 273 273 272 272 272 272 271 271 271 271 270 270 270 270 270 270 270 270 271 270 270 270 270 270 271 271 271 270 270 270
273 274 273 273 272 271 271 271 271 271 272 271 271 270 270 271 271 270 269 270 269 269 269 269 269 269 269 269 269 269 269 270 270 271 273 272 272 272

GFSNE_850_thetae_096.txt.gz
Theta_e
324 325 322 323 322 321 320 319 319 319 319 319 319 320 320 319 319 319 320 320 320 319 320 319 319 319 319 319 319 318 317 317 317 317 316 315 315 315
325 324 324 323 322 320 320 320 321 322 321 321 320 319 318 320 320 320 319 318 318 318 318 317 317 317 317 318 317 317 317 316 315 316 315 315 315 315
325 323 324 323 321 320 322 322 322 321 320 319 321 320 318 318 317 318 316 315 316 317 318 318 317 317 316 316 316 316 316 317 317 317 316 317 316 316
323 324 324 323 322 321 322 322 321 317 320 321 319 320 319 318 318 317 317 318 319 318 318 318 316 315 315 316 316 318 318 318 317 317 317 317 317 317
323 324 324 323 321 321 321 320 320 320 318 316 316 316 315 315 316 317 316 317 314 314 314 315 317 318 318 319 319 319 319 319 318 318 318 318 318 318
323 323 323 323 320 321 321 318 321 319 318 317 316 316 316 315 316 316 316 317 318 318 318 318 318 318 317 317 318 318 318 317 317 317 316 314 313 313
321 322 322 322 321 321 321 318 318 318 317 317 317 316 316 313 313 316 317 318 317 316 316 316 315 313 314 312 313 313 313 312 310 310 310 309 307 305
320 320 320 320 320 320 319 319 318 316 315 314 314 314 313 313 317 317 317 316 313 312 312 311 310 310 309 308 307 306 305 304 301 301 300 298 296 295
318 318 318 318 317 317 316 316 316 316 316 316 316 316 316 317 316 316 315 313 312 310 307 308 307 305 304 302 300 298 297 296 295 293 293 293 293 293
318 317 317 317 317 317 317 317 316 316 316 316 315 314 314 313 312 312 310 310 309 308 304 302 301 300 298 296 294 293 293 292 291 291 291 290 290 290
316 316 315 316 315 314 313 313 314 312 311 312 311 309 308 308 307 306 302 302 300 299 297 296 295 294 293 291 290 289 288 287 287 286 285 283 283 283
308 309 307 307 305 305 306 307 307 306 303 302 301 302 300 301 298 297 296 295 295 294 292 293 293 292 290 289 288 287 285 285 284 283 282 281 281 281
300 297 298 299 299 299 300 300 302 300 299 299 296 294 293 294 293 293 293 293 292 291 289 287 285 284 283 283 283 282 283 283 282 281 280 280 280 280
297 295 294 294 296 298 297 297 297 296 293 293 292 292 292 292 291 289 287 286 284 284 283 282 282 282 281 281 280 281 280 279 279 279 279 279 279 278
294 293 294 293 293 292 294 291 291 291 291 290 290 289 286 284 283 282 282 282 282 281 281 281 280 280 279 279 279 278 279 279 279 278 278 277 277 277
292 291 290 291 290 289 288 287 287 286 285 283 282 282 281 281 281 280 280 281 281 280 280 279 279 279 278 277 277 277 277 277 277 276 276 276 276 276
290 290 290 288 285 283 282 281 281 280 280 280 280 279 280 280 280 280 279 279 279 278 278 278 277 277 276 276 276 275 275 274 274 274 275 275 275 275
285 285 283 281 280 279 279 279 279 278 278 278 278 278 278 278 278 278 278 277 277 276 276 275 275 276 276 275 274 274 274 274 273 274 274 273 274 275
281 280 279 279 279 278 278 278 278 278 277 277 277 277 277 276 276 276 276 276 275 275 274 274 274 274 273 273 274 273 273 273 273 273 273 273 273 275
279 279 278 278 278 277 277 277 277 277 276 276 275 275 275 275 275 275 275 274 274 274 273 273 273 272 272 271 271 272 272 272 272 272 272 272 273 274
277 277 277 276 276 276 276 275 275 275 275 274 274 274 274 274 273 273 273 272 272 272 272 272 271 271 270 271 271 271 272 271 271 271 271 271 272 274
276 275 275 274 274 274 274 274 273 273 273 273 273 273 273 272 272 272 272 271 271 270 270 270 270 270 270 270 270 270 271 271 272 272 272 271 270 269
274 274 274 273 273 273 273 273 273 272 272 272 272 272 271 271 270 270 270 270 270 270 270 270 270 270 269 269 269 269 269 270 271 273 274 273 273 274

GFSNE_850_thetae_102.txt.gz
Theta_e
324 324 324 324 323 325 324 323 323 321 320 321 320 319 319 319 318 319 319 319 318 318 318 318 317 317 317 317 318 318 318 318 318 318 318 318 318 317
323 322 322 323 324 323 323 323 323 322 321 319 319 314 314 318 319 319 319 319 319 319 318 318 318 318 318 319 318 318 317 317 318 318 318 317 317 316
322 322 322 323 322 324 324 323 322 321 320 318 317 318 318 318 319 320 320 320 320 320 319 319 318 317 318 318 318 317 317 316 316 316 316 315 316 316
320 322 321 322 323 322 323 324 321 321 322 319 320 319 320 320 319 319 320 319 319 319 319 317 316 315 315 316 316 317 317 317 317 316 315 315 316 317
321 322 323 323 322 321 323 323 323 321 321 320 320 319 318 319 319 320 320 319 319 319 317 316 316 316 315 315 316 317 318 317 315 315 317 317 317 317
321 321 322 322 320 323 323 322 322 322 321 320 320 319 317 319 320 318 319 318 317 316 316 316 317 317 316 315 315 315 316 316 316 316 316 314 314 313
321 321 321 322 320 322 322 322 322 321 321 321 321 319 319 320 319 318 318 318 318 316 317 317 316 315 314 314 314 314 314 314 313 312 311 310 309 308
320 320 320 321 321 321 323 322 322 322 321 321 320 318 319 318 316 316 316 316 316 316 315 312 311 310 308 308 308 307 307 307 307 307 306 305 301 298
318 319 319 320 320 320 320 319 320 319 320 320 319 318 318 318 318 317 316 316 316 314 311 306 304 303 302 301 301 303 302 303 301 299 297 296 294 293
318 317 317 318 318 319 320 320 320 320 319 319 319 318 318 317 316 316 315 314 312 309 306 302 299 297 297 296 296 297 297 295 294 292 293 291 288 286
316 315 315 316 316 316 316 317 317 316 316 316 315 317 316 315 314 313 310 309 306 302 300 300 297 295 292 292 291 291 291 290 290 288 285 284 284 283
312 311 310 311 311 312 310 311 312 309 308 307 308 310 309 308 305 304 303 302 303 299 298 297 296 295 291 289 289 287 287 287 284 283 283 282 281 281
303 302 301 301 302 303 304 304 305 301 300 300 300 300 300 299 299 299 299 299 299 299 296 295 293 291 289 288 286 286 284 282 282 281 280 280 280 280
298 297 296 297 298 299 299 297 296 297 297 297 296 296 296 296 295 294 292 291 292 290 288 286 285 283 282 282 281 281 280 280 280 280 280 280 279 279
294 294 294 295 296 296 295 294 294 295 294 294 293 291 289 287 285 285 284 283 283 283 283 283 283 282 282 281 280 279 279 279 279 279 278 278 278 278
292 292 292 293 293 293 293 292 291 289 287 285 284 283 282 282 282 282 282 282 282 282 282 281 281 280 280 279 279 278 278 278 277 277 277 277 277 277
290 291 291 291 290 289 287 286 285 283 283 282 282 281 281 281 281 281 280 280 280 280 280 279 279 279 278 278 277 277 277 276 276 276 276 276 277 276
286 287 285 283 282 281 280 280 280 280 280 280 280 280 280 279 279 279 279 278 278 278 278 278 278 277 277 276 276 275 275 274 275 275 275 275 277 276
281 280 280 279 279 279 278 278 278 278 278 278 278 278 278 278 277 277 277 276 276 276 276 275 275 275 275 275 274 274 274 274 274 275 274 275 275 276
279 279 278 278 277 277 277 277 277 277 277 277 277 277 276 276 276 275 275 275 274 274 273 273 273 273 273 273 273 273 272 273 273 274 274 275 275 276
277 277 277 277 276 276 276 276 275 275 275 275 275 275 275 274 274 274 273 273 272 272 272 272 272 272 272 272 272 272 272 272 272 272 273 273 274 275
276 275 275 275 274 274 274 274 274 274 274 273 273 273 273 272 272 272 272 272 271 271 271 271 271 271 270 271 271 271 272 273 273 272 272 272 272 273
274 274 274 274 273 273 273 273 272 272 272 272 272 272 272 272 271 271 271 271 271 271 270 270 270 270 270 270 270 270 271 272 273 274 273 273 274 275

GFSNE_850_thetae_105.txt.gz
Theta_e
326 328 326 325 325 324 324 323 323 322 322 323 322 320 318 318 318 316 315 318 317 316 316 316 316 316 316 316 316 316 316 316 316 316 316 317 317 317
325 326 325 324 322 322 324 324 323 323 322 322 322 321 320 319 318 316 316 319 319 318 318 318 318 318 317 316 316 316 316 317 318 318 318 318 318 318
323 324 324 324 323 322 322 322 324 323 323 322 322 321 321 320 319 319 318 319 319 320 319 318 318 317 317 317 317 317 318 318 318 317 317 317 316 316
323 323 323 322 322 322 322 323 321 322 323 322 322 321 320 317 314 318 319 319 319 319 320 319 319 319 319 318 318 318 317 317 317 317 317 317 317 316
322 321 321 321 322 322 322 323 323 322 323 322 321 319 317 314 319 319 320 320 320 320 320 320 319 318 316 316 316 316 315 316 317 317 317 317 316 316
320 322 321 321 321 321 322 322 322 321 321 321 321 319 318 318 319 318 320 320 320 319 319 319 319 317 316 316 316 316 316 315 316 315 315 315 315 315
320 321 321 321 321 322 321 320 321 320 321 321 321 320 319 320 320 318 319 319 319 319 319 319 318 317 316 316 316 316 314 314 313 312 312 312 310 310
319 319 319 320 321 321 321 322 321 320 321 321 319 320 319 320 318 316 318 318 316 316 316 315 315 314 312 310 310 310 306 305 306 306 306 306 306 304
317 318 318 319 319 320 320 321 321 321 321 319 320 319 320 320 319 318 318 318 317 316 312 307 306 305 304 304 303 302 301 301 301 302 301 298 296 295
316 317 318 318 318 317 317 320 319 318 320 319 319 320 320 318 318 319 318 317 315 313 311 305 299 299 298 297 296 296 296 296 296 296 294 293 292 287
315 314 315 315 317 315 314 317 317 317 317 318 318 319 318 318 317 317 316 316 311 305 302 302 295 296 293 292 291 291 292 293 292 292 291 285 285 284
309 308 308 310 312 310 312 313 315 312 311 313 313 313 312 313 315 311 313 313 310 300 298 298 295 294 290 288 289 289 289 290 289 285 283 283 283 283
297 300 300 301 304 304 305 305 307 304 303 304 305 305 304 304 303 303 302 301 302 302 297 297 293 291 292 290 289 289 288 286 283 282 282 281 281 281
297 296 296 296 299 299 300 298 297 298 298 299 298 297 297 297 297 296 297 297 297 298 295 295 294 292 291 287 285 285 283 281 281 280 280 280 280 280
294 294 294 294 295 295 294 294 294 295 295 296 295 294 294 292 291 290 288 287 288 288 286 285 284 284 283 282 282 281 280 280 280 279 279 279 279 279
292 292 293 293 293 292 292 292 292 290 288 288 286 285 284 283 283 283 283 283 283 283 282 282 282 282 281 281 280 279 279 278 278 278 278 278 278 278
290 291 291 291 291 290 289 289 287 285 287 288 286 285 284 283 283 282 282 282 282 281 281 281 280 280 279 278 278 278 277 277 276 276 277 278 278 277
286 286 285 284 284 283 283 282 281 281 282 281 280 280 280 280 280 280 280 280 279 279 279 278 278 277 277 277 277 276 276 276 276 276 276 276 277 276
282 281 280 280 280 279 279 279 279 279 279 279 279 278 278 278 278 278 278 277 277 277 277 277 276 276 275 276 275 275 275 275 275 275 275 275 276 276
280 279 279 278 278 278 278 278 278 278 278 278 277 277 277 277 276 276 276 276 276 275 275 275 275 275 275 274 274 273 273 273 274 274 274 274 275 276
277 277 277 277 277 276 276 276 276 276 276 276 276 276 275 275 275 275 275 274 274 274 274 274 274 274 273 273 273 273 272 273 273 273 274 274 274 276
276 275 275 275 275 275 274 274 274 275 274 274 274 274 274 274 273 273 273 273 272 272 272 272 272 272 272 272 272 272 273 273 273 273 272 273 273 273
274 274 274 273 273 273 273 273 273 273 273 273 273 273 272 272 272 272 272 271 271 271 271 271 271 271 271 271 271 271 272 272 273 273 273 272 273 274

GFSNE_850_thetae_111.txt.gz
Theta_e
331 331 330 330 329 328 327 326 327 325 325 325 326 325 324 323 324 323 325 324 322 319 315 314 318 318 317 317 316 316 314 315 314 314 313 314 315 315
332 332 329 328 328 327 326 326 326 325 325 325 326 326 324 324 323 323 323 324 322 317 315 313 317 318 318 317 316 315 315 315 315 315 315 315 315 315
330 329 328 328 327 326 325 325 325 326 326 326 326 325 326 324 323 323 323 323 320 317 316 315 315 316 316 315 316 316 315 316 315 315 314 314 314 315
329 327 326 325 326 325 325 325 325 325 325 325 325 324 323 322 324 323 322 323 317 316 315 317 316 317 317 316 314 314 316 315 314 314 315 316 316 317
320 326 327 326 325 325 324 324 324 324 324 323 324 323 323 323 323 322 322 319 315 315 312 310 315 318 318 318 316 315 314 315 316 316 316 317 317 318
324 326 325 324 324 325 325 324 324 323 323 322 323 323 323 322 322 322 321 319 317 316 316 317 317 318 317 318 318 318 317 317 317 317 317 317 317 317
326 325 324 323 323 322 322 321 321 321 321 321 322 322 322 322 322 321 321 320 318 319 318 315 318 317 318 318 319 319 318 318 318 318 318 317 317 316
324 323 323 322 320 320 321 320 320 320 320 321 321 321 321 321 321 321 320 319 316 318 318 318 317 317 317 318 319 319 318 318 318 318 317 316 315 315
322 320 319 320 320 320 318 319 318 320 320 320 320 320 320 321 321 320 320 320 318 316 314 314 311 312 310 314 316 310 315 310 311 311 315 309 306 305
319 318 318 318 318 317 317 316 315 317 317 319 319 320 320 319 319 319 319 318 316 314 312 310 306 302 307 300 304 301 300 301 304 300 302 301 300 299
314 315 316 317 317 316 315 315 314 315 315 315 316 318 319 319 317 318 317 316 310 309 309 308 299 303 298 295 295 297 297 297 299 298 297 296 296 296
306 305 314 313 314 313 310 310 309 309 309 311 312 312 312 315 317 317 314 311 313 305 303 301 299 302 292 290 289 290 291 292 293 293 292 292 293 289
303 303 301 302 302 303 303 304 304 302 302 304 305 307 306 307 308 308 307 306 307 308 305 302 297 295 295 288 286 287 288 289 289 289 291 289 284 282
297 297 297 297 298 299 300 299 298 298 298 299 300 300 301 302 301 301 301 301 302 303 298 296 297 294 293 287 285 286 286 287 288 286 284 283 282 282
293 292 293 294 294 294 294 294 295 295 296 297 295 295 294 294 294 295 296 296 297 297 294 293 294 291 292 291 289 286 286 287 286 284 282 281 281 283
290 291 292 292 293 292 292 293 293 293 293 291 290 289 290 290 291 291 291 292 293 292 291 290 290 291 291 290 288 286 284 283 282 281 282 283 282 281
290 291 291 291 291 291 290 290 289 288 288 287 286 286 286 286 286 285 286 286 288 286 287 288 289 288 286 284 283 282 281 281 283 284 281 279 279 279
283 283 282 282 282 282 282 282 283 283 283 283 284 284 284 284 284 285 285 285 285 283 282 282 282 282 283 283 284 282 280 279 278 278 278 278 278 279
282 281 281 280 279 279 279 279 279 279 280 280 280 280 280 280 281 280 280 280 279 278 278 278 279 280 280 280 278 278 278 277 277 277 277 277 277 277
279 279 279 278 278 278 278 278 278 278 278 278 278 279 279 279 280 280 280 279 278 277 277 277 277 278 281 282 279 277 276 276 276 276 276 277 277 277
277 277 277 277 276 276 276 276 276 276 276 276 276 277 277 278 277 277 277 278 277 277 277 276 276 276 277 277 277 276 276 275 275 275 275 276 276 277
276 276 275 275 275 275 275 275 275 275 275 275 275 275 276 276 276 276 277 277 277 276 275 274 274 274 274 276 276 275 275 275 274 275 274 274 275 276
274 274 274 274 274 273 274 273 273 273 273 273 273 273 274 274 274 274 274 274 274 274 274 274 273 273 273 273 274 274 274 274 274 274 275 275 274 274

GFSNE_850_thetae_114.txt.gz
Theta_e
333 330 327 325 330 329 328 328 329 328 326 328 327 325 325 325 324 324 324 324 324 324 325 323 321 319 317 317 317 316 315 314 313 313 309 306 306 307
333 329 325 328 327 330 330 330 328 327 326 325 325 324 324 324 324 324 323 324 323 325 325 322 320 318 317 317 317 316 316 314 314 313 313 311 310 312
333 330 327 324 321 330 328 327 326 326 326 325 324 325 326 325 325 324 323 323 322 324 324 322 318 316 316 317 318 316 316 315 315 314 315 315 314 314
333 332 331 329 329 328 327 327 326 326 325 325 325 324 325 324 324 324 323 323 322 323 323 321 318 313 315 317 318 317 317 316 315 315 315 315 315 315
331 331 330 329 328 328 327 326 326 326 325 325 325 324 324 324 323 323 322 323 322 321 322 319 317 313 316 317 316 315 315 315 316 315 316 315 315 315
331 329 327 326 327 327 326 326 325 324 324 324 323 323 322 322 323 323 321 322 321 321 322 320 317 316 316 316 317 317 316 316 315 315 316 314 314 315
330 327 327 327 327 326 325 323 323 324 324 323 322 321 322 323 322 323 323 322 322 321 321 318 318 315 317 314 313 314 315 315 315 314 314 315 316 316
328 327 326 325 325 324 324 323 322 322 321 320 320 320 320 321 322 321 321 321 319 320 319 317 317 313 312 310 318 318 313 316 317 317 317 317 317 317
325 324 324 324 324 322 322 321 320 320 319 318 318 319 320 320 321 321 321 322 321 319 317 315 315 313 316 317 317 317 315 317 317 317 318 317 316 316
323 320 322 322 320 322 320 319 317 315 315 315 315 317 318 319 319 319 320 320 317 313 311 307 305 307 310 313 312 307 314 309 311 313 311 310 308 306
313 314 315 318 316 319 318 316 315 313 313 313 312 314 315 317 318 318 318 318 312 308 305 307 300 301 300 300 303 301 300 300 303 301 302 301 302 301
301 300 301 305 303 308 310 313 311 311 310 311 311 310 312 312 314 313 313 313 315 306 304 304 300 300 294 295 297 296 297 297 298 298 298 297 296 295
298 298 296 300 299 300 300 303 304 303 303 304 305 306 307 308 309 308 308 307 308 308 305 302 300 299 300 293 289 290 292 292 293 293 292 293 293 293
295 294 294 295 294 295 297 296 296 298 299 300 301 301 301 301 302 302 303 302 302 303 302 300 300 298 299 291 287 286 287 288 289 290 290 292 289 284
291 291 292 293 293 292 292 293 294 294 295 296 295 294 293 294 294 296 297 298 298 299 297 295 296 296 295 296 291 287 286 287 287 289 289 284 283 282
291 292 292 292 292 292 293 293 293 292 291 291 290 290 290 291 292 292 293 293 294 292 292 292 291 292 293 293 292 288 287 287 286 287 286 282 283 287
288 289 290 291 291 291 290 290 289 288 288 287 288 288 288 289 289 289 290 290 291 288 288 288 289 290 290 288 287 286 286 285 285 283 283 285 286 282
282 282 282 281 281 281 282 282 283 284 284 284 285 285 285 284 285 286 287 288 288 288 288 287 287 287 286 286 285 285 284 284 284 285 284 281 279 279
281 280 280 279 279 279 280 280 280 280 280 281 281 281 281 281 281 280 280 280 281 283 284 284 283 284 284 284 282 282 282 280 280 279 277 277 277 279
279 278 278 277 278 278 278 277 278 279 279 279 279 280 280 280 280 281 280 279 278 278 278 278 279 280 281 281 280 279 278 278 277 277 277 277 278 277
277 276 276 276 276 276 276 276 276 277 276 277 277 278 278 278 278 278 279 279 278 277 277 277 277 278 281 281 280 278 276 275 275 275 275 276 276 277
275 275 275 275 274 275 274 275 275 275 275 275 275 276 277 277 276 277 277 277 277 277 277 276 275 275 276 277 278 277 276 276 275 275 275 275 275 277
273 273 274 273 274 274 273 273 273 273 273 273 274 274 275 275 275 275 275 276 275 275 274 274 274 274 274 275 275 275 275 274 274 274 275 275 275 275

GFSNE_850_thetae_117.txt.gz
Theta_e
332 332 331 331 331 330 327 326 325 327 328 328 327 327 326 325 324 325 325 324 324 324 325 325 325 325 325 322 320 318 316 315 313 313 310 312 314 311
330 333 331 330 331 328 329 327 326 326 326 327 328 326 326 325 325 325 325 324 324 323 324 325 325 325 324 322 320 318 316 316 315 313 311 313 313 311
328 330 331 330 330 328 329 328 326 323 324 328 326 325 324 324 324 324 324 323 323 323 323 323 323 325 324 323 320 317 317 317 316 314 314 313 312 310
330 330 330 330 330 330 327 325 321 323 328 328 325 325 325 324 324 324 324 324 323 323 323 323 324 326 324 324 318 317 318 318 316 315 314 314 314 314
330 330 329 330 327 329 326 321 320 325 326 325 324 325 325 325 325 324 323 323 322 322 323 322 322 323 323 323 317 317 318 318 316 315 315 314 314 315
328 328 329 328 327 327 326 324 327 327 326 326 325 325 325 324 324 323 322 323 323 321 321 321 322 322 323 321 317 314 318 318 317 315 316 315 315 314
328 327 328 329 328 326 326 327 326 327 325 326 326 324 322 322 321 321 322 321 322 322 320 321 320 322 321 319 315 313 318 319 317 314 311 312 315 315
328 327 328 329 327 327 327 326 327 325 324 322 323 321 321 320 321 321 321 319 322 322 322 320 320 321 320 319 315 313 316 314 316 315 313 315 314 312
327 327 329 327 326 325 327 326 325 323 322 322 322 320 319 320 319 319 320 320 320 320 320 315 319 318 319 318 317 315 315 316 315 315 310 314 314 313
318 319 321 325 322 323 323 323 321 321 319 319 318 316 317 318 318 319 318 319 319 318 315 310 310 309 311 312 315 316 315 314 313 313 314 311 313 315
304 304 303 315 311 315 316 318 316 315 315 315 313 313 314 316 317 317 318 317 316 313 311 310 307 304 302 303 303 306 310 311 312 313 314 313 311 311
301 299 299 300 300 300 305 308 308 309 311 312 311 311 311 312 314 315 315 315 314 310 307 305 305 303 296 295 296 296 297 298 301 303 301 304 301 299
297 297 296 296 300 300 300 301 302 301 303 304 304 305 307 308 310 311 310 309 309 308 308 305 301 300 299 294 291 292 293 295 298 297 297 298 298 297
291 293 293 295 295 297 298 295 296 298 298 298 300 302 302 302 302 303 304 303 304 303 305 302 302 301 300 293 289 288 290 291 292 293 293 293 293 293
291 291 292 293 294 294 293 295 295 296 296 297 296 295 295 296 297 298 299 299 300 300 300 298 298 298 296 298 294 287 286 287 289 290 291 291 292 292
291 291 291 292 292 292 293 293 292 292 292 292 291 290 291 293 294 293 295 295 296 295 294 294 295 295 294 294 294 290 288 289 288 288 289 289 288 283
283 284 284 286 287 288 288 288 289 288 289 288 288 289 289 290 291 290 291 292 293 291 290 290 290 291 292 291 289 288 287 287 287 286 286 286 285 283
283 283 281 281 281 280 280 281 283 283 284 285 285 286 287 288 289 288 288 289 289 288 288 288 288 289 288 287 287 286 285 286 285 285 285 285 284 285
281 280 280 279 279 279 279 279 279 280 280 281 281 281 282 282 282 282 284 287 287 286 286 286 286 287 287 285 283 284 285 284 284 283 283 284 281 279
278 277 277 277 277 277 277 277 277 278 278 279 280 280 280 281 281 280 279 279 279 282 284 284 284 285 285 285 284 283 282 282 282 280 278 278 277 278
276 275 275 275 275 275 275 275 276 276 276 277 277 278 278 278 279 280 279 278 278 278 278 278 279 280 281 281 280 279 278 278 277 276 277 277 277 276
274 274 274 274 274 274 274 274 274 275 275 275 275 276 277 277 277 277 278 278 277 277 277 277 276 277 279 280 279 278 277 276 275 275 275 275 275 276
272 272 272 272 272 272 272 273 273 272 273 273 273 274 275 275 275 276 277 276 276 276 276 275 275 275 276 277 277 276 276 275 274 275 275 275 275 275

GFSNE_850_thetae_120.txt.gz
Theta_e
331 328 326 326 328 331 332 330 328 328 327 324 325 322 322 325 325 325 326 326 326 326 325 324 325 323 323 325 324 323 320 317 314 315 315 315 315 315
329 329 326 325 329 329 328 331 330 327 326 324 323 323 324 325 324 325 325 325 325 325 325 325 325 324 325 324 323 325 322 319 317 314 313 314 314 313
327 329 328 326 326 328 329 327 330 329 329 327 324 325 326 327 325 325 325 325 324 324 324 324 324 324 324 325 325 325 323 320 317 315 315 313 313 313
326 327 327 326 329 327 329 328 329 329 328 326 325 323 326 325 324 324 324 324 324 323 323 323 323 323 324 325 325 325 323 320 317 316 315 314 314 313
328 326 321 323 327 329 328 329 329 328 327 327 323 322 326 326 325 324 324 324 324 323 323 323 322 323 322 323 324 326 323 319 316 315 317 315 314 312
328 325 324 323 325 330 329 329 327 327 325 323 321 322 325 325 325 324 324 324 323 322 322 322 322 322 322 322 322 324 323 320 317 315 317 316 315 314
327 324 324 324 326 330 328 327 327 327 324 321 324 325 325 324 325 324 322 322 322 321 322 322 322 321 321 320 321 323 322 322 317 315 315 317 316 314
323 324 324 326 329 329 328 326 326 326 324 323 324 325 326 324 325 324 323 321 320 320 321 318 320 321 320 322 320 322 322 321 317 315 314 318 316 314
322 323 322 326 327 327 327 327 326 326 324 325 325 325 324 323 323 322 321 320 320 320 320 319 320 320 320 320 320 321 320 320 319 316 318 317 315 313
312 316 320 322 325 327 326 325 325 326 325 325 325 324 322 322 321 320 320 319 319 319 319 318 317 315 316 317 319 320 321 319 317 314 315 316 315 314
300 301 303 309 311 314 316 322 323 324 323 322 322 321 321 319 317 317 318 318 318 317 317 314 313 311 309 309 312 314 317 316 315 314 315 316 315 314
298 300 300 300 303 302 302 306 306 309 308 313 314 315 313 314 314 315 315 315 316 315 314 312 310 307 303 302 304 305 307 308 307 309 312 312 314 312
296 296 297 296 298 301 299 301 302 298 301 299 303 305 306 311 310 312 313 313 312 312 312 310 308 306 304 301 297 296 298 300 300 300 300 302 304 303
293 293 294 296 296 297 298 297 299 298 299 299 300 300 299 301 302 302 305 306 306 307 306 305 305 304 303 299 295 292 293 294 295 296 296 296 297 296
291 291 292 293 294 295 294 295 295 296 297 297 297 297 296 297 298 298 298 298 301 302 302 302 301 300 300 300 300 293 291 290 291 292 292 292 293 293
288 290 292 292 293 292 293 293 292 292 293 292 291 291 292 293 295 294 295 295 297 297 297 297 296 297 296 295 296 295 291 290 289 289 290 290 290 290
282 283 283 283 283 284 285 287 288 289 290 289 290 290 291 291 292 292 293 293 294 293 293 293 292 292 291 294 292 291 289 289 288 288 288 288 288 288
282 282 281 280 280 280 280 281 281 282 283 283 285 285 286 288 288 288 289 290 290 289 289 289 290 290 289 288 288 288 286 287 286 286 286 286 285 285
280 279 278 278 278 278 278 278 279 279 280 280 281 281 282 281 281 285 286 286 287 287 287 287 287 288 288 286 284 284 285 285 285 284 284 284 284 284
277 276 276 276 276 276 276 277 277 277 278 278 279 280 280 281 281 280 280 282 284 285 285 285 285 286 286 286 284 283 283 284 283 283 283 283 282 282
274 274 274 274 274 274 275 275 275 275 275 276 277 277 278 278 279 279 279 278 278 278 279 280 281 283 283 284 284 282 282 281 280 280 280 278 277 277
272 272 272 272 272 273 273 273 273 273 274 274 274 275 276 276 277 277 278 278 278 277 278 277 277 279 280 281 280 280 279 278 277 276 276 277 276 276
271 271 271 271 271 272 272 271 271 272 272 272 272 273 274 275 275 275 276 276 276 276 276 276 275 275 277 279 278 277 276 276 275 274 274 274 274 275

GFSNE_850_thetae_123.txt.gz
Theta_e
316 330 330 330 328 327 326 327 328 328 328 328 327 325 323 323 323 324 324 324 326 325 324 323 322 321 320 321 322 321 323 323 320 317 315 314 314 314
315 320 330 330 329 329 327 326 327 327 327 327 327 326 325 324 323 324 325 324 326 326 324 325 325 324 323 323 322 322 323 324 322 318 314 313 314 314
317 316 320 329 329 329 328 325 325 328 330 328 328 326 325 325 323 325 324 324 324 326 326 326 326 325 324 325 324 323 323 323 323 319 317 314 314 314
318 318 317 326 328 326 328 325 324 327 329 327 328 327 326 324 325 326 325 325 324 324 324 324 324 325 324 323 324 322 325 324 323 322 319 316 313 312
318 319 318 319 328 326 325 327 325 326 327 328 328 328 327 325 325 326 325 324 324 324 324 324 323 323 323 323 324 325 323 325 324 324 320 316 315 313
317 319 318 319 327 327 322 325 324 326 329 328 327 328 327 325 324 325 324 324 324 324 324 323 323 323 322 322 323 322 323 322 323 321 319 317 313 314
316 317 317 319 325 325 323 321 323 324 326 328 328 326 326 325 322 324 325 324 323 324 323 323 322 322 322 321 321 321 322 323 322 321 319 317 315 316
316 317 319 322 323 323 323 322 323 324 325 327 326 326 323 322 322 322 325 324 324 324 323 323 321 319 321 322 321 321 322 321 321 321 320 317 315 317
314 317 318 320 322 323 323 325 325 325 325 326 325 325 323 323 322 324 324 324 323 323 322 321 319 319 319 317 320 320 320 321 321 321 320 321 317 316
305 306 310 313 315 320 323 325 325 325 324 324 325 321 319 321 323 324 321 323 324 322 320 320 319 318 316 317 320 320 321 320 320 320 321 320 318 316
301 301 302 304 303 309 307 312 317 321 323 323 324 324 320 321 323 324 323 322 321 321 320 318 317 316 315 315 317 317 319 319 319 320 319 319 317 318
298 297 297 299 300 303 304 301 304 305 307 308 305 316 316 321 320 318 320 320 320 319 318 316 315 313 311 311 311 312 314 315 317 317 316 316 315 314
293 293 294 297 298 299 299 300 301 299 301 302 301 301 305 305 309 307 311 314 313 315 315 314 314 312 310 309 307 305 306 307 309 310 310 311 312 313
290 290 291 294 296 297 297 297 297 298 299 299 300 301 300 300 302 301 301 303 303 305 308 308 308 309 309 305 304 302 299 299 300 301 301 302 303 304
289 289 291 292 293 294 294 295 296 296 296 298 297 295 295 296 297 297 299 298 300 300 300 301 301 301 301 302 303 301 299 296 294 296 297 297 298 297
282 283 283 284 286 288 291 292 292 292 292 291 290 290 291 293 295 295 295 296 297 297 296 295 296 296 296 297 297 298 295 295 292 292 292 293 293 293
282 283 284 283 283 282 282 282 283 284 286 286 287 289 290 291 291 291 292 293 294 293 293 293 293 293 292 293 293 293 292 290 290 289 289 290 289 290
282 281 280 280 279 279 279 279 280 281 281 281 282 282 282 284 287 288 288 289 290 289 289 289 289 289 289 288 288 289 287 288 287 287 287 287 287 286
279 278 277 277 277 277 277 277 277 277 278 279 280 280 281 281 281 282 286 286 286 286 287 286 287 287 288 287 284 284 286 286 286 285 285 285 285 285
275 275 274 274 274 274 275 275 275 276 276 277 277 278 279 279 280 280 280 280 283 284 285 285 285 286 286 285 284 283 283 285 284 284 283 283 283 282
273 273 273 273 273 273 272 273 273 273 274 274 275 276 277 277 278 278 278 278 278 278 278 280 282 284 284 284 284 282 282 281 282 282 282 282 281 281
271 271 271 271 272 272 272 272 272 272 273 273 273 274 274 275 276 277 277 277 277 277 277 278 277 279 280 282 282 282 281 280 281 280 279 279 279 278
270 270 269 269 270 270 270 270 270 270 270 271 271 272 272 273 274 274 275 275 275 276 276 276 276 276 278 279 279 279 279 278 276 276 276 276 276 275

GFSNE_850_thetae_126.txt.gz
Theta_e
311 312 315 325 326 329 328 327 326 324 324 322 321 321 325 326 325 322 322 322 324 325 326 324 323 321 323 324 324 323 322 324 324 321 320 318 317 315
313 312 312 314 324 328 328 327 326 326 324 324 324 325 326 327 327 325 323 322 324 324 325 325 323 323 322 319 320 322 322 323 322 322 321 319 317 315
312 312 312 313 317 323 326 328 327 327 326 325 326 326 325 325 327 326 324 324 324 324 325 326 324 324 323 321 321 321 322 321 321 320 322 321 317 314
312 314 315 315 315 322 324 326 327 328 327 327 326 326 326 326 327 327 325 324 325 324 325 326 326 324 325 324 324 324 324 323 321 323 323 322 319 316
311 312 313 315 317 316 319 320 327 327 325 327 326 324 326 328 327 325 325 324 325 325 325 325 326 326 325 325 325 324 323 323 323 322 323 323 321 320
310 311 313 315 316 318 318 319 326 327 324 324 324 323 325 327 327 326 325 325 326 325 325 325 324 325 324 324 324 323 323 323 324 323 324 323 323 322
309 309 311 314 316 316 317 320 319 324 325 323 325 326 324 325 326 326 325 325 325 325 325 324 324 323 323 322 322 322 322 322 323 322 323 322 321 319
303 307 312 313 314 315 317 319 322 324 323 322 326 323 323 324 324 325 325 324 324 324 324 324 324 323 322 320 322 322 321 321 321 321 321 321 321 319
299 303 308 309 312 315 317 317 321 323 323 322 322 322 322 322 324 325 325 324 322 324 324 323 323 323 322 321 321 319 320 321 321 320 321 321 321 320
293 296 300 306 310 310 315 313 320 322 322 322 323 324 323 322 322 325 323 322 322 323 324 323 322 322 322 321 320 319 320 319 319 320 320 320 320 320
291 293 294 299 299 303 305 307 309 312 312 313 317 318 321 323 322 322 322 322 322 321 322 321 321 320 319 319 318 317 318 317 319 320 320 320 320 320
291 292 293 296 298 300 301 300 303 300 300 300 304 304 302 317 319 319 319 319 320 321 318 318 318 318 317 317 316 316 316 316 317 318 319 319 319 319
290 291 291 293 294 296 296 295 295 297 298 300 300 302 301 304 306 307 308 307 308 313 314 313 314 317 315 314 314 312 313 314 313 313 315 317 317 317
284 286 288 291 293 294 293 293 294 294 295 297 299 298 296 297 298 301 304 303 301 302 305 307 305 308 308 310 310 309 309 309 306 306 309 310 310 311
281 281 282 282 283 284 287 291 294 294 292 290 289 290 291 294 295 297 297 297 297 298 300 302 300 300 299 300 304 304 303 301 300 300 300 301 301 302
281 281 281 281 282 281 282 282 282 283 284 284 284 288 290 292 293 293 294 294 297 296 296 295 296 296 297 296 296 298 296 298 296 295 295 296 296 297
280 280 281 281 280 280 280 280 280 280 281 281 282 282 283 285 287 288 290 291 292 291 291 292 292 293 294 293 294 293 291 290 291 291 291 292 292 292
280 278 276 276 276 275 276 277 277 277 277 278 279 280 281 281 280 284 285 286 287 287 287 288 288 289 289 289 289 289 288 289 288 288 287 289 289 289
277 275 274 274 273 273 273 274 274 275 275 276 277 278 278 279 280 280 279 281 284 285 285 286 286 287 288 288 285 285 286 287 287 286 286 286 286 285
273 272 272 272 272 272 272 272 272 273 274 274 275 275 276 277 277 278 278 278 278 278 280 283 285 285 285 285 284 283 283 285 285 285 285 284 284 284
271 270 270 270 270 270 271 271 271 271 272 272 272 273 274 274 275 276 276 277 277 277 278 278 279 282 282 283 283 282 282 282 282 283 283 283 283 282
270 270 269 269 269 269 269 270 270 271 271 271 271 271 272 272 273 274 274 275 275 275 276 276 276 277 279 281 282 282 281 281 281 281 281 281 281 281
270 270 270 269 269 269 269 269 269 269 269 269 269 270 270 271 271 272 272 273 273 274 275 275 275 275 276 279 280 280 280 279 279 279 279 278 278 279

GFSNE_850_thetae_129.txt.gz
Theta_e
309 310 310 311 316 324 327 325 327 327 326 325 324 324 323 323 322 322 325 323 323 324 325 325 326 326 327 322 321 322 325 326 327 326 327 324 321 321
305 308 311 311 311 318 323 325 327 327 327 326 325 324 325 325 323 322 321 326 324 322 323 324 324 325 326 323 321 323 326 326 326 327 323 324 323 321
304 306 308 311 312 311 318 324 321 325 325 327 326 325 325 324 323 323 322 325 326 324 322 323 324 325 325 323 322 321 323 323 324 322 322 323 321 320
301 304 305 308 310 311 313 318 323 321 325 325 326 326 325 325 325 325 325 324 325 325 323 323 324 324 325 323 323 320 320 321 322 323 323 321 322 321
300 301 304 306 308 310 314 314 318 323 322 323 326 327 326 326 326 326 326 326 327 326 325 324 324 324 326 325 323 323 322 322 323 322 321 321 321 320
302 303 303 305 307 310 313 316 315 319 322 324 323 326 326 327 326 326 326 326 327 326 325 325 325 325 326 325 324 324 324 324 323 323 324 323 322 323
298 297 298 301 307 309 310 313 315 316 318 321 320 323 323 325 326 325 324 325 326 325 325 325 325 324 325 325 326 326 324 323 323 323 323 324 323 323
293 296 298 301 304 308 311 311 313 315 317 319 320 321 323 325 324 324 323 324 323 324 324 326 325 325 324 325 325 325 325 324 323 323 323 323 323 323
289 292 296 299 302 306 308 310 312 313 315 318 319 319 324 324 324 324 323 323 323 324 324 325 325 324 326 325 323 323 323 322 322 322 322 321 321 322
288 290 292 295 297 298 299 302 306 309 313 316 313 315 321 322 323 323 322 322 323 323 323 324 324 325 325 324 323 323 322 321 321 321 321 321 320 320
289 290 292 294 294 296 297 297 298 303 300 304 306 306 316 321 322 322 322 322 322 321 322 322 323 323 322 320 321 322 320 320 320 320 319 320 320 320
291 291 289 291 294 295 294 295 298 295 296 296 298 303 305 309 312 311 316 316 318 319 319 319 318 320 314 316 315 320 317 319 317 317 318 318 319 320
282 282 283 289 291 291 291 291 291 294 295 297 298 298 298 301 301 304 303 307 306 305 310 310 315 311 311 313 313 314 314 314 316 316 316 316 318 318
280 280 280 282 283 284 287 291 295 295 294 295 294 293 293 294 294 295 296 299 304 301 299 306 303 302 304 305 304 306 308 310 312 312 313 315 315 316
280 280 281 281 282 282 282 283 284 284 284 286 289 289 289 289 291 293 292 294 296 296 297 298 301 301 301 301 301 298 302 302 304 304 308 310 310 311
280 280 280 280 280 280 280 280 280 280 281 281 282 281 283 289 290 290 290 292 293 292 294 294 295 296 297 297 297 299 297 298 296 296 297 300 301 302
278 279 279 279 279 278 278 278 278 278 279 279 279 280 281 281 281 285 287 288 287 288 289 290 290 291 292 293 293 292 293 294 294 293 291 292 293 295
277 276 274 274 274 274 274 275 275 275 276 276 277 278 278 279 279 280 280 281 282 285 286 287 288 288 288 288 289 288 288 289 289 289 291 291 289 288
274 273 272 271 271 271 272 272 272 273 273 274 274 275 276 276 277 278 278 278 278 279 281 284 286 286 286 285 285 285 285 286 287 286 287 288 289 288
270 270 269 269 269 269 270 270 271 271 272 272 272 273 273 273 274 275 275 276 276 277 277 278 282 284 283 282 283 284 283 284 284 285 285 285 285 285
269 269 268 268 268 268 269 269 269 269 270 270 271 271 271 271 271 272 273 274 275 275 276 276 276 279 281 282 281 281 282 282 283 283 283 283 283 282
269 269 269 269 269 268 268 269 268 268 268 268 269 269 270 269 269 270 270 271 272 273 274 275 276 276 278 280 280 281 280 281 281 281 282 282 281 281
268 268 268 268 269 269 269 269 268 268 268 268 268 268 268 267 268 268 269 269 270 271 272 273 274 275 276 278 278 279 279 279 279 279 280 280 281 281

GFSNE_850_thetae_132.txt.gz
Theta_e
301 303 305 306 308 310 314 323 325 326 327 327 328 328 326 325 324 324 324 321 326 324 324 327 329 328 327 326 326 327 326 326 322 322 324 326 326 326
301 303 303 305 306 308 309 313 321 325 325 325 326 327 328 327 325 323 322 321 320 322 324 324 328 329 328 326 326 326 326 325 322 322 326 326 326 326
297 299 303 304 304 307 309 310 315 321 323 324 325 326 329 328 329 328 326 324 323 322 323 325 325 326 327 325 325 326 326 323 321 323 325 327 327 327
295 298 300 303 305 305 306 309 311 316 321 323 324 325 326 328 328 329 328 326 326 324 323 321 325 324 324 325 325 325 326 323 321 321 324 325 325 326
293 294 297 301 303 305 306 307 310 312 318 321 323 323 325 327 327 327 329 327 325 325 323 323 323 325 323 323 324 325 325 323 320 321 323 326 324 322
291 295 297 297 299 300 303 306 308 311 316 319 321 323 323 325 326 326 328 330 327 326 326 325 324 326 324 324 324 325 325 323 321 320 321 322 322 323
289 292 294 295 296 298 302 307 308 311 313 318 318 320 322 323 323 326 326 327 326 326 326 325 325 326 325 325 325 325 325 325 323 322 322 323 322 322
286 288 291 295 296 298 300 304 308 309 311 313 317 318 319 322 323 324 324 327 326 325 325 324 326 326 326 326 325 325 325 326 324 324 324 324 323 323
284 286 288 291 293 295 296 301 305 307 308 311 313 314 317 319 320 320 323 322 324 324 324 323 322 325 325 326 326 325 325 325 325 324 324 324 323 323
286 286 288 289 291 293 295 298 299 301 304 307 308 308 310 316 318 318 319 321 324 324 323 322 323 324 324 326 326 325 325 325 325 325 325 324 324 323
289 288 289 289 291 293 295 294 294 294 294 296 297 298 300 307 316 317 316 316 321 320 322 322 322 322 324 325 325 325 326 324 324 324 324 323 323 323
282 283 286 288 290 292 294 294 294 293 294 295 296 297 299 301 306 309 312 311 311 314 314 313 317 319 318 321 320 320 321 322 323 323 321 321 320 320
279 280 280 281 283 285 289 291 291 292 293 294 294 294 293 296 297 298 300 301 304 302 305 305 303 309 308 308 312 312 316 314 318 317 317 320 319 318
278 278 279 279 280 281 282 282 283 284 285 288 291 290 289 290 292 294 295 295 295 294 297 299 299 301 303 304 304 303 304 306 307 313 312 315 315 316
277 277 278 279 279 279 279 280 281 281 282 282 282 282 284 287 290 291 291 291 292 294 294 295 298 296 299 298 301 302 298 301 301 302 303 308 311 311
277 278 278 278 278 278 279 279 279 279 278 278 279 280 280 281 282 286 288 290 291 290 291 293 291 293 295 295 294 295 296 296 298 299 299 298 301 304
275 275 277 277 277 277 276 276 276 277 277 277 277 277 278 279 280 280 281 282 283 284 287 288 288 288 290 291 291 289 290 290 291 292 293 295 297 296
274 274 273 273 272 272 272 272 272 273 273 273 274 274 276 276 277 278 279 280 280 280 281 283 286 287 287 288 288 287 287 287 288 288 289 290 291 291
273 273 273 272 272 272 272 271 271 271 271 272 272 273 274 275 275 276 277 278 279 279 280 279 281 282 285 286 285 285 284 285 285 286 286 287 287 287
272 271 271 271 271 271 271 271 271 270 270 271 271 271 272 274 274 275 275 275 276 277 278 279 278 278 280 281 282 282 283 283 284 285 285 285 285 285
270 270 269 269 269 269 269 270 270 270 269 270 270 270 271 272 273 273 273 274 274 275 276 277 277 277 279 281 283 281 282 283 283 283 283 283 283 283
267 268 267 267 266 267 267 267 269 269 269 269 269 269 269 270 271 271 272 272 273 273 274 275 276 277 279 280 281 280 280 281 282 282 282 283 283 283
265 265 265 265 265 265 265 266 267 267 267 267 268 268 268 269 269 270 270 271 271 272 272 273 275 276 278 278 279 280 279 279 279 278 281 281 282 282